OE7AOT-2 Weather Reports


time (UTC)temp
C
wind
direction
speed
KPH
gust
KPH
rain 1hr
cm
rain 24hr
cm
rain mn
cm
humidity
%
barometer
mb
20260507115823 -12 0 72.4 0.0 0.00 0.00 0.00 43 922.2
20260507115714 37 0 59.5 0.0 0.00 0.00 0.00 43 922.2
20260507115606 37 315 32.2 0.0 0.00 0.00 0.00 44 922.3
20260507115457 36 315 48.3 0.0 0.00 0.00 0.00 45 922.3
20260507115349 35 45 69.2 0.0 0.00 0.00 0.00 46 922.4
20260507115240 32 315 112.7 0.0 0.00 0.00 0.00 49 922.4
20260507115132 31 315 106.2 0.0 0.00 0.00 0.00 50 922.4
20260507115023 28 0 38.6 0.0 0.00 0.00 0.00 53 922.5
20260507114915 26 135 45.1 0.0 0.00 0.00 0.00 55 922.5
20260507114807 25 0 96.6 0.0 0.00 0.00 0.00 56 922.6
20260507114658 25 45 143.2 0.0 0.00 0.00 0.00 56 922.5
20260507114550 23 0 59.5 0.0 0.00 0.00 0.00 59 922.5
20260507114442 23 45 77.2 0.0 0.00 0.00 0.00 59 922.6
20260507114333 22 45 24.1 0.0 0.00 0.00 0.00 61 922.7
20260507114224 20 225 56.3 0.0 0.00 0.00 0.00 63 922.7
20260507114116 17 270 51.5 0.0 0.00 0.00 0.00 64 922.8
20260507114008 16 45 38.6 0.0 0.00 0.00 0.00 65 922.8
20260507113859 16 315 74.0 0.0 0.00 0.00 0.00 66 922.8
20260507113751 15 0 40.2 0.0 0.00 0.00 0.00 66 922.8
20260507113642 14 0 77.2 0.0 0.00 0.00 0.00 67 922.9
20260507113534 14 45 75.6 0.0 0.00 0.00 0.00 67 922.8
20260507113425 13 270 62.8 0.0 0.00 0.00 0.00 68 922.9
20260507113317 13 45 61.2 0.0 0.00 0.00 0.00 68 922.9
20260507113208 13 315 62.8 0.0 0.00 0.00 0.00 69 922.9
20260507113100 13 0 46.7 0.0 0.00 0.00 0.00 70 922.9
20260507112951 12 0 101.4 0.0 0.00 0.00 0.00 70 922.9
20260507112843 12 0 57.9 0.0 0.00 0.00 0.00 70 922.9
20260507112735 12 0 154.5 0.0 0.00 0.00 0.00 71 922.9
20260507112626 12 0 51.5 0.0 0.00 0.00 0.00 71 922.9
20260507112518 12 0 45.1 0.0 0.00 0.00 0.00 71 923.0
20260507112409 12 0 14.5 0.0 0.00 0.00 0.00 71 923.0
20260507112301 12 315 80.5 0.0 0.00 0.00 0.00 71 923.0
20260507112152 12 45 20.9 0.0 0.00 0.00 0.00 71 923.0
20260507112044 11 90 29.0 0.0 0.00 0.00 0.00 71 923.0
20260507111936 11 90 33.8 0.0 0.00 0.00 0.00 71 923.0
20260507111827 11 135 70.8 0.0 0.00 0.00 0.00 71 923.0
20260507111719 11 0 62.8 0.0 0.00 0.00 0.00 71 922.9
20260507111610 11 180 43.5 0.0 0.00 0.00 0.00 71 923.0
20260507111503 11 0 61.2 0.0 0.00 0.00 0.00 71 923.0
20260507111353 11 315 37.0 0.0 0.00 0.00 0.00 70 922.9
20260507111245 11 135 49.9 0.0 0.00 0.00 0.00 70 923.0
20260507111136 11 315 101.4 0.0 0.00 0.00 0.00 70 923.0
20260507111028 11 0 74.0 0.0 0.00 0.00 0.00 70 923.0
20260507110920 11 0 45.1 0.0 0.00 0.00 0.00 70 922.9
20260507110811 12 45 33.8 0.0 0.00 0.00 0.00 70 923.0
20260507110703 12 315 83.7 0.0 0.00 0.00 0.00 69 923.0
20260507110554 12 0 98.2 0.0 0.00 0.00 0.00 69 922.9
20260507110446 12 0 91.7 0.0 0.00 0.00 0.00 69 923.0
20260507110337 12 315 48.3 0.0 0.00 0.00 0.00 69 923.0
20260507110229 12 315 41.8 0.0 0.00 0.00 0.00 68 923.1
20260507110120 12 90 80.5 0.0 0.00 0.00 0.00 68 923.0
20260507110012 12 45 49.9 0.0 0.00 0.00 0.00 68 922.9
20260507105904 12 0 56.3 0.0 0.00 0.00 0.00 68 923.0
20260507105755 12 45 75.6 0.0 0.00 0.00 0.00 68 922.9
20260507105647 12 0 67.6 0.0 0.00 0.00 0.00 68 922.9
20260507105538 12 90 62.8 0.0 0.00 0.00 0.00 68 922.9
20260507105430 13 0 107.8 0.0 0.00 0.00 0.00 68 922.9
20260507105321 13 315 67.6 0.0 0.00 0.00 0.00 68 922.8
20260507105213 13 45 20.9 0.0 0.00 0.00 0.00 68 922.9
20260507105105 13 0 43.5 0.0 0.00 0.00 0.00 68 922.9
20260507104956 13 90 35.4 0.0 0.00 0.00 0.00 68 922.9
20260507104848 12 0 67.6 0.0 0.00 0.00 0.00 68 923.0
20260507104739 12 135 32.2 0.0 0.00 0.00 0.00 68 923.0
20260507104631 12 315 56.3 0.0 0.00 0.00 0.00 68 923.0
20260507104522 12 315 56.3 0.0 0.00 0.00 0.00 67 923.0
20260507104414 12 315 90.1 0.0 0.00 0.00 0.00 67 923.0
20260507104305 12 45 61.2 0.0 0.00 0.00 0.00 67 922.9
20260507104158 13 180 38.6 0.0 0.00 0.00 0.00 67 922.9
20260507104049 13 315 88.5 0.0 0.00 0.00 0.00 67 923.0
20260507103940 13 0 88.5 0.0 0.00 0.00 0.00 67 922.9
20260507103832 13 45 49.9 0.0 0.00 0.00 0.00 66 922.9
20260507103723 13 45 69.2 0.0 0.00 0.00 0.00 66 922.9
20260507103615 14 315 19.3 0.0 0.00 0.00 0.00 66 923.0
20260507103506 14 0 98.2 0.0 0.00 0.00 0.00 66 923.0
20260507103358 14 0 33.8 0.0 0.00 0.00 0.00 67 922.9
20260507103249 15 90 43.5 0.0 0.00 0.00 0.00 67 922.9
20260507103141 15 90 27.4 0.0 0.00 0.00 0.00 67 922.9
20260507103033 15 135 61.2 0.0 0.00 0.00 0.00 68 922.8
20260507102924 15 315 19.3 0.0 0.00 0.00 0.00 68 922.9
20260507102816 15 225 29.0 0.0 0.00 0.00 0.00 68 922.9
20260507102707 15 270 46.7 0.0 0.00 0.00 0.00 68 922.8
20260507102559 15 315 120.7 0.0 0.00 0.00 0.00 68 922.8
20260507102450 15 45 91.7 0.0 0.00 0.00 0.00 68 922.8
20260507102342 16 0 19.3 0.0 0.00 0.00 0.00 68 922.7
20260507102234 16 0 72.4 0.0 0.00 0.00 0.00 68 922.8
20260507102125 16 0 64.4 0.0 0.00 0.00 0.00 68 922.8
20260507102017 16 315 59.5 0.0 0.00 0.00 0.00 68 922.8
20260507101908 16 45 141.6 0.0 0.00 0.00 0.00 68 922.8
20260507101800 16 0 27.4 0.0 0.00 0.00 0.00 68 922.7
20260507101651 16 225 130.4 0.0 0.00 0.00 0.00 68 922.8
20260507101543 16 45 29.0 0.0 0.00 0.00 0.00 68 922.8
20260507101434 16 45 95.0 0.0 0.00 0.00 0.00 68 922.8
20260507101326 16 45 30.6 0.0 0.00 0.00 0.00 68 922.7
20260507101218 16 90 85.3 0.0 0.00 0.00 0.00 68 922.8
20260507101109 15 45 19.3 0.0 0.00 0.00 0.00 68 922.8
20260507101001 15 90 57.9 0.0 0.00 0.00 0.00 68 922.7
20260507100852 15 135 53.1 0.0 0.00 0.00 0.00 68 922.8
20260507100744 15 0 95.0 0.0 0.00 0.00 0.00 68 922.8
20260507100635 15 45 14.5 0.0 0.00 0.00 0.00 68 922.8
20260507100527 15 90 70.8 0.0 0.00 0.00 0.00 68 922.8
20260507100418 15 315 62.8 0.0 0.00 0.00 0.00 68 922.8
20260507100310 15 45 56.3 0.0 0.00 0.00 0.00 67 922.8
20260507100202 16 315 130.4 0.0 0.00 0.00 0.00 67 922.7
20260507100053 16 45 70.8 0.0 0.00 0.00 0.00 67 922.6
20260507095945 16 315 53.1 0.0 0.00 0.00 0.00 67 922.7
20260507095836 16 45 43.5 0.0 0.00 0.00 0.00 67 922.7
20260507095728 16 315 74.0 0.0 0.00 0.00 0.00 67 922.7
20260507095619 16 90 30.6 0.0 0.00 0.00 0.00 67 922.7
20260507095511 16 315 57.9 0.0 0.00 0.00 0.00 66 922.7
20260507095403 16 45 154.5 0.0 0.00 0.00 0.00 66 922.7
20260507095254 16 0 38.6 0.0 0.00 0.00 0.00 66 922.5
20260507095146 16 90 115.9 0.0 0.00 0.00 0.00 65 922.6
20260507095037 16 0 57.9 0.0 0.00 0.00 0.00 65 922.5
20260507094929 17 45 69.2 0.0 0.00 0.00 0.00 65 922.6
20260507094820 17 315 46.7 0.0 0.00 0.00 0.00 64 922.6
20260507094712 18 135 72.4 0.0 0.00 0.00 0.00 64 922.6
20260507094603 18 0 91.7 0.0 0.00 0.00 0.00 63 922.5
20260507094455 18 0 38.6 0.0 0.00 0.00 0.00 63 922.5
20260507094347 19 45 25.7 0.0 0.00 0.00 0.00 62 922.5
20260507094238 20 315 12.9 0.0 0.00 0.00 0.00 61 922.5
20260507094130 21 180 136.8 0.0 0.00 0.00 0.00 60 922.5
20260507094021 21 0 20.9 0.0 0.00 0.00 0.00 59 922.4
20260507093913 22 315 37.0 0.0 0.00 0.00 0.00 58 922.5
20260507093804 23 0 59.5 0.0 0.00 0.00 0.00 57 922.5
20260507093656 24 315 61.2 0.0 0.00 0.00 0.00 56 922.4
20260507093547 26 45 99.8 0.0 0.00 0.00 0.00 55 922.3
20260507093439 27 45 107.8 0.0 0.00 0.00 0.00 54 922.3
20260507093331 28 0 69.2 0.0 0.00 0.00 0.00 54 922.2
20260507093222 29 315 109.4 0.0 0.00 0.00 0.00 55 922.2
20260507093114 30 0 82.1 0.0 0.00 0.00 0.00 55 922.1
20260507093005 30 135 74.0 0.0 0.00 0.00 0.00 55 922.1
20260507092857 30 45 140.0 0.0 0.00 0.00 0.00 55 922.0
20260507092748 30 45 91.7 0.0 0.00 0.00 0.00 55 922.0
20260507092640 29 45 197.9 0.0 0.00 0.00 0.00 56 922.1
20260507092532 28 0 85.3 0.0 0.00 0.00 0.00 56 922.0
20260507092423 28 0 46.7 0.0 0.00 0.00 0.00 56 922.1
20260507092315 28 0 64.4 0.0 0.00 0.00 0.00 58 922.1
20260507092206 27 0 70.8 0.0 0.00 0.00 0.00 58 922.2
20260507092058 27 0 122.3 0.0 0.00 0.00 0.00 58 922.1
20260507091949 26 0 117.5 0.0 0.00 0.00 0.00 59 922.1
20260507091841 26 0 114.3 0.0 0.00 0.00 0.00 59 922.1
20260507091732 26 0 29.0 0.0 0.00 0.00 0.00 59 922.1
20260507091624 26 225 101.4 0.0 0.00 0.00 0.00 58 922.1
20260507091516 26 90 35.4 0.0 0.00 0.00 0.00 58 922.0
20260507091407 26 315 144.8 0.0 0.00 0.00 0.00 58 922.1
20260507091259 26 135 132.0 0.0 0.00 0.00 0.00 59 922.0
20260507091150 26 45 62.8 0.0 0.00 0.00 0.00 59 922.0
20260507091042 26 45 70.8 0.0 0.00 0.00 0.00 60 922.1
20260507090933 26 45 64.4 0.0 0.00 0.00 0.00 60 922.1
20260507090825 26 45 115.9 0.0 0.00 0.00 0.00 60 922.0
20260507090716 26 0 70.8 0.0 0.00 0.00 0.00 59 922.0
20260507090608 26 90 82.1 0.0 0.00 0.00 0.00 60 922.0
20260507090500 26 0 40.2 0.0 0.00 0.00 0.00 61 922.0
20260507090351 25 315 48.3 0.0 0.00 0.00 0.00 62 922.1
20260507090243 25 0 56.3 0.0 0.00 0.00 0.00 62 922.0
20260507090134 25 315 82.1 0.0 0.00 0.00 0.00 63 922.1
20260507090026 24 0 82.1 0.0 0.00 0.00 0.00 63 922.0
20260507085917 24 0 98.2 0.0 0.00 0.00 0.00 63 922.1
20260507085809 23 45 33.8 0.0 0.00 0.00 0.00 64 922.1
20260507085700 23 90 125.5 0.0 0.00 0.00 0.00 64 922.1
20260507085552 23 45 41.8 0.0 0.00 0.00 0.00 64 922.1
20260507085444 23 180 125.5 0.0 0.00 0.00 0.00 65 922.2
20260507085335 22 45 103.0 0.0 0.00 0.00 0.00 65 922.2
20260507085227 22 45 128.7 0.0 0.00 0.00 0.00 64 922.2
20260507085118 22 45 53.1 0.0 0.00 0.00 0.00 65 922.2
20260507085010 22 90 64.4 0.0 0.00 0.00 0.00 65 922.2
20260507084901 21 0 112.7 0.0 0.00 0.00 0.00 65 922.3
20260507084753 21 0 37.0 0.0 0.00 0.00 0.00 65 922.2
20260507084645 21 270 122.3 0.0 0.00 0.00 0.00 66 922.2
20260507084536 21 45 109.4 0.0 0.00 0.00 0.00 66 922.3
20260507084428 20 0 106.2 0.0 0.00 0.00 0.00 68 922.2
20260507084319 20 45 112.7 0.0 0.00 0.00 0.00 69 922.2
20260507084211 19 45 83.7 0.0 0.00 0.00 0.00 69 922.1
20260507084102 18 0 98.2 0.0 0.00 0.00 0.00 68 922.3
20260507083954 18 45 103.0 0.0 0.00 0.00 0.00 66 922.3
20260507083845 18 0 127.1 0.0 0.00 0.00 0.00 66 922.4
20260507083738 18 0 51.5 0.0 0.00 0.00 0.00 65 922.3
20260507083629 18 315 40.2 0.0 0.00 0.00 0.00 65 922.3
20260507083520 19 0 138.4 0.0 0.00 0.00 0.00 65 922.3
20260507083412 19 45 80.5 0.0 0.00 0.00 0.00 65 922.2
20260507083303 19 45 88.5 0.0 0.00 0.00 0.00 66 922.2
20260507083155 19 315 54.7 0.0 0.00 0.00 0.00 67 922.3
20260507083047 19 90 83.7 0.0 0.00 0.00 0.00 68 922.2
20260507082938 19 45 30.6 0.0 0.00 0.00 0.00 70 922.1
20260507082829 18 315 123.9 0.0 0.00 0.00 0.00 71 922.2
20260507082721 17 0 67.6 0.0 0.00 0.00 0.00 70 922.2
20260507082613 17 45 56.3 0.0 0.00 0.00 0.00 69 922.2
20260507082504 17 0 78.9 0.0 0.00 0.00 0.00 69 922.2
20260507082356 17 0 111.0 0.0 0.00 0.00 0.00 69 922.2
20260507082247 17 0 112.7 0.0 0.00 0.00 0.00 69 922.1
20260507082139 17 0 24.1 0.0 0.00 0.00 0.00 69 922.1
20260507082030 17 0 30.6 0.0 0.00 0.00 0.00 69 922.2
20260507081922 17 180 74.0 0.0 0.00 0.00 0.00 69 922.2
20260507081813 17 0 133.6 0.0 0.00 0.00 0.00 70 922.2
20260507081705 17 45 85.3 0.0 0.00 0.00 0.00 69 922.2
20260507081557 17 45 40.2 0.0 0.00 0.00 0.00 69 922.2
20260507081448 17 135 46.7 0.0 0.00 0.00 0.00 69 922.2
20260507081340 17 135 25.7 0.0 0.00 0.00 0.00 69 922.2
20260507081231 17 315 85.3 0.0 0.00 0.00 0.00 68 922.2
20260507081123 17 315 91.7 0.0 0.00 0.00 0.00 68 922.1
20260507081014 17 45 19.3 0.0 0.00 0.00 0.00 68 922.1
20260507080906 17 225 75.6 0.0 0.00 0.00 0.00 68 922.2
20260507080758 17 0 53.1 0.0 0.00 0.00 0.00 68 922.2
20260507080649 17 315 103.0 0.0 0.00 0.00 0.00 68 922.2
20260507080541 17 315 43.5 0.0 0.00 0.00 0.00 68 922.2
20260507080432 17 90 85.3 0.0 0.00 0.00 0.00 68 922.2
20260507080324 17 270 25.7 0.0 0.00 0.00 0.00 69 922.1
20260507080215 17 45 112.7 0.0 0.00 0.00 0.00 69 922.1
20260507080107 17 0 144.8 0.0 0.00 0.00 0.00 70 922.1
20260507075958 17 45 25.7 0.0 0.00 0.00 0.00 70 922.2
20260507075850 17 90 69.2 0.0 0.00 0.00 0.00 71 922.1
20260507075742 17 315 46.7 0.0 0.00 0.00 0.00 71 922.1
20260507075633 17 315 41.8 0.0 0.00 0.00 0.00 72 922.1
20260507075525 16 0 56.3 0.0 0.00 0.00 0.00 72 922.1
20260507075416 16 0 72.4 0.0 0.00 0.00 0.00 71 922.1
20260507075308 16 315 46.7 0.0 0.00 0.00 0.00 71 922.1
20260507075159 16 180 49.9 0.0 0.00 0.00 0.00 71 922.1
20260507075051 16 45 25.7 0.0 0.00 0.00 0.00 71 922.1
20260507074942 16 315 86.9 0.0 0.00 0.00 0.00 70 922.1
20260507074834 15 0 43.5 0.0 0.00 0.00 0.00 70 922.1
20260507074726 15 90 82.1 0.0 0.00 0.00 0.00 70 922.2
20260507074618 15 315 72.4 0.0 0.00 0.00 0.00 70 922.1
20260507074509 15 0 86.9 0.0 0.00 0.00 0.00 70 922.2
20260507074400 15 0 122.3 0.0 0.00 0.00 0.00 71 922.1
20260507074252 15 0 67.6 0.0 0.00 0.00 0.00 71 922.1
20260507074143 15 45 48.3 0.0 0.00 0.00 0.00 72 922.2
20260507074035 15 0 90.1 0.0 0.00 0.00 0.00 72 922.1
20260507073927 15 315 90.1 0.0 0.00 0.00 0.00 72 922.1
20260507073818 15 0 53.1 0.0 0.00 0.00 0.00 72 922.1
20260507073710 15 90 59.5 0.0 0.00 0.00 0.00 73 922.1
20260507073601 15 45 35.4 0.0 0.00 0.00 0.00 72 922.1
20260507073453 14 270 43.5 0.0 0.00 0.00 0.00 72 922.2
20260507073344 13 45 120.7 0.0 0.00 0.00 0.00 72 922.2
20260507073236 13 0 20.9 0.0 0.00 0.00 0.00 72 922.2
20260507073127 13 180 138.4 0.0 0.00 0.00 0.00 72 922.2
20260507073019 13 0 99.8 0.0 0.00 0.00 0.00 72 922.2
20260507072911 12 0 66.0 0.0 0.00 0.00 0.00 73 922.2
20260507072802 12 45 77.2 0.0 0.00 0.00 0.00 73 922.2
20260507072654 12 45 133.6 0.0 0.00 0.00 0.00 73 922.2
20260507072545 12 0 57.9 0.0 0.00 0.00 0.00 73 922.1
20260507072438 12 0 80.5 0.0 0.00 0.00 0.00 73 922.2
20260507072328 12 0 83.7 0.0 0.00 0.00 0.00 72 922.1
20260507072220 11 90 77.2 0.0 0.00 0.00 0.00 72 922.2
20260507072111 11 0 180.2 0.0 0.00 0.00 0.00 72 922.2
20260507072003 11 0 101.4 0.0 0.00 0.00 0.00 72 922.0
20260507071855 11 45 59.5 0.0 0.00 0.00 0.00 72 922.1
20260507071746 11 0 32.2 0.0 0.00 0.00 0.00 72 922.1
20260507071638 11 315 83.7 0.0 0.00 0.00 0.00 72 922.2
20260507071529 11 0 169.0 0.0 0.00 0.00 0.00 72 922.1
20260507071421 11 0 112.7 0.0 0.00 0.00 0.00 72 922.0
20260507071312 11 45 57.9 0.0 0.00 0.00 0.00 72 922.0
20260507071204 11 45 136.8 0.0 0.00 0.00 0.00 72 922.1
20260507071056 11 90 114.3 0.0 0.00 0.00 0.00 72 922.0
20260507070947 11 45 90.1 0.0 0.00 0.00 0.00 72 922.0
20260507070839 11 315 98.2 0.0 0.00 0.00 0.00 73 922.0
20260507070730 11 45 56.3 0.0 0.00 0.00 0.00 73 922.0
20260507070622 12 90 91.7 0.0 0.00 0.00 0.00 73 922.0
20260507070513 12 0 101.4 0.0 0.00 0.00 0.00 73 922.0
20260507070405 12 0 127.1 0.0 0.00 0.00 0.00 73 921.9
20260507070256 12 0 66.0 0.0 0.00 0.00 0.00 72 921.9
20260507070148 12 90 72.4 0.0 0.00 0.00 0.00 72 922.0
20260507070040 12 0 104.6 0.0 0.00 0.00 0.00 72 921.9
20260507065931 12 0 59.5 0.0 0.00 0.00 0.00 72 921.9
20260507065823 12 45 85.3 0.0 0.00 0.00 0.00 72 922.0
20260507065714 12 45 62.8 0.0 0.00 0.00 0.00 72 922.0
20260507065606 12 315 48.3 0.0 0.00 0.00 0.00 72 921.9
20260507065457 12 0 114.3 0.0 0.00 0.00 0.00 72 922.0
20260507065349 12 0 72.4 0.0 0.00 0.00 0.00 72 922.0
20260507065240 12 0 107.8 0.0 0.00 0.00 0.00 72 922.0
20260507065132 12 45 122.3 0.0 0.00 0.00 0.00 72 921.9
20260507065024 12 0 54.7 0.0 0.00 0.00 0.00 72 921.9
20260507064915 12 315 112.7 0.0 0.00 0.00 0.00 73 921.9
20260507064807 12 0 114.3 0.0 0.00 0.00 0.00 72 921.9
20260507064658 12 45 154.5 0.0 0.00 0.00 0.00 73 921.9
20260507064550 12 45 101.4 0.0 0.00 0.00 0.00 73 922.0
20260507064441 12 45 48.3 0.0 0.00 0.00 0.00 73 921.9
20260507064333 12 0 103.0 0.0 0.00 0.00 0.00 73 922.0
20260507064225 12 45 59.5 0.0 0.00 0.00 0.00 73 921.9
20260507064116 12 315 93.3 0.0 0.00 0.00 0.00 73 921.9
20260507064008 12 0 53.1 0.0 0.00 0.00 0.00 73 922.0
20260507063859 12 270 49.9 0.0 0.00 0.00 0.00 73 922.0
20260507063751 12 0 112.7 0.0 0.00 0.00 0.00 74 921.9
20260507063642 12 90 103.0 0.0 0.00 0.00 0.00 74 921.9
20260507063534 12 0 111.0 0.0 0.00 0.00 0.00 74 921.9
20260507063425 12 45 88.5 0.0 0.00 0.00 0.00 73 921.9
20260507063317 12 0 70.8 0.0 0.00 0.00 0.00 73 921.9
20260507063209 12 45 83.7 0.0 0.00 0.00 0.00 73 921.9
20260507063100 12 0 72.4 0.0 0.00 0.00 0.00 73 921.9
20260507062952 12 45 46.7 0.0 0.00 0.00 0.00 73 921.9
20260507062843 12 0 41.8 0.0 0.00 0.00 0.00 73 921.9
20260507062735 12 90 45.1 0.0 0.00 0.00 0.00 73 921.9
20260507062626 12 315 156.1 0.0 0.00 0.00 0.00 73 921.9
20260507062518 12 315 132.0 0.0 0.00 0.00 0.00 74 921.8
20260507062410 12 315 75.6 0.0 0.00 0.00 0.00 74 921.9
20260507062301 12 45 61.2 0.0 0.00 0.00 0.00 74 921.8
20260507062153 12 315 51.5 0.0 0.00 0.00 0.00 74 921.9
20260507062044 12 45 82.1 0.0 0.00 0.00 0.00 74 921.9
20260507061936 11 0 67.6 0.0 0.00 0.00 0.00 74 921.9
20260507061827 11 90 151.3 0.0 0.00 0.00 0.00 74 921.9
20260507061719 11 0 56.3 0.0 0.00 0.00 0.00 74 921.9
20260507061610 11 315 20.9 0.0 0.00 0.00 0.00 74 921.9
20260507061502 11 90 135.2 0.0 0.00 0.00 0.00 74 921.9
20260507061353 11 0 123.9 0.0 0.00 0.00 0.00 74 921.9
20260507061245 11 0 30.6 0.0 0.00 0.00 0.00 74 921.9
20260507061137 11 45 75.6 0.0 0.00 0.00 0.00 74 921.9
20260507061028 11 0 86.9 0.0 0.00 0.00 0.00 74 921.9
20260507060920 11 45 56.3 0.0 0.00 0.00 0.00 74 921.8
20260507060811 11 270 114.3 0.0 0.00 0.00 0.00 74 921.8
20260507060703 11 135 90.1 0.0 0.00 0.00 0.00 74 921.7
20260507060555 11 45 64.4 0.0 0.00 0.00 0.00 74 921.8
20260507060446 11 45 59.5 0.0 0.00 0.00 0.00 74 921.8
20260507060338 11 45 70.8 0.0 0.00 0.00 0.00 74 921.7
20260507060229 11 0 37.0 0.0 0.00 0.00 0.00 74 921.8
20260507060121 11 315 122.3 0.0 0.00 0.00 0.00 74 921.8
20260507060012 11 315 20.9 0.0 0.00 0.00 0.00 74 921.8
20260507055904 11 0 86.9 0.0 0.00 0.00 0.00 74 921.8
20260507055755 11 0 41.8 0.0 0.00 0.00 0.00 74 921.8
20260507055647 11 0 30.6 0.0 0.00 0.00 0.00 74 921.8
20260507055538 11 315 67.6 0.0 0.00 0.00 0.00 74 921.8
20260507055430 11 315 53.1 0.0 0.00 0.00 0.00 74 921.7
20260507055322 11 45 78.9 0.0 0.00 0.00 0.00 74 921.7
20260507055213 11 0 66.0 0.0 0.00 0.00 0.00 74 921.7
20260507055105 11 0 4.8 0.0 0.00 0.00 0.00 74 921.7
20260507054956 11 90 25.7 0.0 0.00 0.00 0.00 74 921.7
20260507054848 11 315 69.2 0.0 0.00 0.00 0.00 74 921.7
20260507054739 11 45 83.7 0.0 0.00 0.00 0.00 74 921.6
20260507054631 11 0 80.5 0.0 0.00 0.00 0.00 74 921.6
20260507054522 11 315 54.7 0.0 0.00 0.00 0.00 74 921.6
20260507054414 11 315 66.0 0.0 0.00 0.00 0.00 74 921.5
20260507054306 11 0 20.9 0.0 0.00 0.00 0.00 74 921.6
20260507054158 11 90 86.9 0.0 0.00 0.00 0.00 74 921.5
20260507054049 11 0 117.5 0.0 0.00 0.00 0.00 74 921.4
20260507053940 11 45 91.7 0.0 0.00 0.00 0.00 74 921.5
20260507053832 11 0 56.3 0.0 0.00 0.00 0.00 74 921.4
20260507053723 11 45 30.6 0.0 0.00 0.00 0.00 74 921.5
20260507053615 11 90 127.1 0.0 0.00 0.00 0.00 75 921.5
20260507053507 11 45 130.4 0.0 0.00 0.00 0.00 75 921.5
20260507053358 11 45 80.5 0.0 0.00 0.00 0.00 75 921.5
20260507053250 11 0 77.2 0.0 0.00 0.00 0.00 75 921.5
20260507053141 11 45 49.9 0.0 0.00 0.00 0.00 75 921.4
20260507053033 11 315 33.8 0.0 0.00 0.00 0.00 75 921.5
20260507052924 11 315 96.6 0.0 0.00 0.00 0.00 75 921.5
20260507052816 11 0 82.1 0.0 0.00 0.00 0.00 75 921.4
20260507052707 11 45 78.9 0.0 0.00 0.00 0.00 75 921.4
20260507052559 10 45 32.2 0.0 0.00 0.00 0.00 75 921.4
20260507052451 10 45 66.0 0.0 0.00 0.00 0.00 75 921.4
20260507052342 10 45 120.7 0.0 0.00 0.00 0.00 75 921.4
20260507052234 10 45 91.7 0.0 0.00 0.00 0.00 75 921.2
20260507052125 10 0 143.2 0.0 0.00 0.00 0.00 75 921.3
20260507052017 10 315 49.9 0.0 0.00 0.00 0.00 75 921.3
20260507051908 10 225 72.4 0.0 0.00 0.00 0.00 75 921.3
20260507051800 10 0 72.4 0.0 0.00 0.00 0.00 75 921.2
20260507051652 10 45 90.1 0.0 0.00 0.00 0.00 75 921.4
20260507051543 10 45 11.3 0.0 0.00 0.00 0.00 75 921.3
20260507051435 10 315 85.3 0.0 0.00 0.00 0.00 75 921.3
20260507051326 10 270 78.9 0.0 0.00 0.00 0.00 75 921.2
20260507051218 10 0 41.8 0.0 0.00 0.00 0.00 75 921.3
20260507051109 10 0 125.5 0.0 0.00 0.00 0.00 75 921.3
20260507051001 10 45 64.4 0.0 0.00 0.00 0.00 76 921.3
20260507050852 10 0 112.7 0.0 0.00 0.00 0.00 76 921.3
20260507050744 10 45 74.0 0.0 0.00 0.00 0.00 76 921.2
20260507050636 10 0 62.8 0.0 0.00 0.00 0.00 76 921.2
20260507050527 10 0 136.8 0.0 0.00 0.00 0.00 76 921.2
20260507050419 10 0 51.5 0.0 0.00 0.00 0.00 76 921.2
20260507050310 10 315 91.7 0.0 0.00 0.00 0.00 76 921.3
20260507050202 10 0 119.1 0.0 0.00 0.00 0.00 76 921.3
20260507050053 10 315 149.7 0.0 0.00 0.00 0.00 75 921.1
20260507045945 9 135 48.3 0.0 0.00 0.00 0.00 75 921.2
20260507045836 9 315 49.9 0.0 0.00 0.00 0.00 75 921.2
20260507045728 9 0 59.5 0.0 0.00 0.00 0.00 75 921.2
20260507045620 9 0 70.8 0.0 0.00 0.00 0.00 75 921.2
20260507045511 9 0 22.5 0.0 0.00 0.00 0.00 76 921.2
20260507045254 9 315 64.4 0.0 0.00 0.00 0.00 76 921.0
20260507045146 9 45 43.5 0.0 0.00 0.00 0.00 76 921.1
20260507045037 9 315 88.5 0.0 0.00 0.00 0.00 76 921.1
20260507044929 9 135 38.6 0.0 0.00 0.00 0.00 76 921.1
20260507044820 9 0 66.0 0.0 0.00 0.00 0.00 76 921.1
20260507044712 9 0 70.8 0.0 0.00 0.00 0.00 76 921.1
20260507044604 9 0 80.5 0.0 0.00 0.00 0.00 76 921.1
20260507044455 9 45 67.6 0.0 0.00 0.00 0.00 76 921.1
20260507044347 9 0 128.7 0.0 0.00 0.00 0.00 76 921.1
20260507044238 9 0 83.7 0.0 0.00 0.00 0.00 76 921.0
20260507044130 9 45 49.9 0.0 0.00 0.00 0.00 76 921.1
20260507044021 9 45 56.3 0.0 0.00 0.00 0.00 76 921.1
20260507043913 9 0 64.4 0.0 0.00 0.00 0.00 76 921.1
20260507043805 9 0 69.2 0.0 0.00 0.00 0.00 76 921.1
20260507043656 9 0 38.6 0.0 0.00 0.00 0.00 76 921.1
20260507043548 9 45 20.9 0.0 0.00 0.00 0.00 76 921.1
20260507043439 9 0 1.6 0.0 0.00 0.00 0.00 76 921.1
20260507043331 9 90 0.0 0.0 0.00 0.00 0.00 76 921.1
20260507043222 9 0 12.9 0.0 0.00 0.00 0.00 76 921.2
20260507043114 9 0 45.1 0.0 0.00 0.00 0.00 76 921.2
20260507043005 8 180 1.6 0.0 0.00 0.00 0.00 76 921.1
20260507042857 8 0 32.2 0.0 0.00 0.00 0.00 76 921.2
20260507042749 8 315 38.6 0.0 0.00 0.00 0.00 76 921.1
20260507042640 8 45 40.2 0.0 0.00 0.00 0.00 76 921.1
20260507042532 8 0 35.4 0.0 0.00 0.00 0.00 76 921.1
20260507042423 8 45 24.1 0.0 0.00 0.00 0.00 76 921.1
20260507042315 8 0 9.7 0.0 0.00 0.00 0.00 76 921.1
20260507042206 8 0 3.2 0.0 0.00 0.00 0.00 76 921.1
20260507042058 8 45 1.6 0.0 0.00 0.00 0.00 76 921.1
20260507041949 8 45 41.8 0.0 0.00 0.00 0.00 77 921.1
20260507041841 8 45 37.0 0.0 0.00 0.00 0.00 77 921.1
20260507041733 8 0 30.6 0.0 0.00 0.00 0.00 77 921.0
20260507041624 8 0 33.8 0.0 0.00 0.00 0.00 77 921.0
20260507041516 8 45 3.2 0.0 0.00 0.00 0.00 77 921.0
20260507041407 8 135 29.0 0.0 0.00 0.00 0.00 77 921.0
20260507041259 8 180 35.4 0.0 0.00 0.00 0.00 77 921.0
20260507041150 8 45 12.9 0.0 0.00 0.00 0.00 77 921.0
20260507041042 8 45 46.7 0.0 0.00 0.00 0.00 76 920.9
20260507040934 8 315 8.0 0.0 0.00 0.00 0.00 76 920.9
20260507040825 8 45 20.9 0.0 0.00 0.00 0.00 76 920.9
20260507040717 8 315 17.7 0.0 0.00 0.00 0.00 76 920.9
20260507040608 8 0 35.4 0.0 0.00 0.00 0.00 76 920.9
20260507040500 8 0 40.2 0.0 0.00 0.00 0.00 76 920.9
20260507040351 8 45 22.5 0.0 0.00 0.00 0.00 76 920.9
20260507040243 8 45 12.9 0.0 0.00 0.00 0.00 76 920.8
20260507040134 8 315 41.8 0.0 0.00 0.00 0.00 76 920.8
20260507040026 8 315 41.8 0.0 0.00 0.00 0.00 76 920.8
20260507035918 8 90 59.5 0.0 0.00 0.00 0.00 76 920.8
20260507035809 8 0 35.4 0.0 0.00 0.00 0.00 76 920.8
20260507035701 8 135 95.0 0.0 0.00 0.00 0.00 76 920.8
20260507035553 8 0 91.7 0.0 0.00 0.00 0.00 76 920.7
20260507035444 8 90 83.7 0.0 0.00 0.00 0.00 76 920.7
20260507035336 8 0 30.6 0.0 0.00 0.00 0.00 76 920.7
20260507035228 8 90 77.2 0.0 0.00 0.00 0.00 76 920.7
20260507035120 8 0 51.5 0.0 0.00 0.00 0.00 76 920.7
20260507035011 8 0 101.4 0.0 0.00 0.00 0.00 76 920.7
20260507034903 8 0 111.0 0.0 0.00 0.00 0.00 76 920.7
20260507034755 8 315 45.1 0.0 0.00 0.00 0.00 76 920.7
20260507034647 8 0 85.3 0.0 0.00 0.00 0.00 76 920.7
20260507034538 8 45 112.7 0.0 0.00 0.00 0.00 76 920.7
20260507034430 8 67.6 0.0 0.00 0.00 0.00 76 920.7
20260507034322 8 0 107.8 0.0 0.00 0.00 0.00 76 920.6
20260507034213 8 0 104.6 0.0 0.00 0.00 0.00 76 920.5
20260507034105 8 0 62.8 0.0 0.00 0.00 0.00 76 920.4
20260507033957 8 0 70.8 0.0 0.00 0.00 0.00 76 920.5
20260507033849 8 0 67.6 0.0 0.00 0.00 0.00 76 920.5
20260507033740 8 315 41.8 0.0 0.00 0.00 0.00 76 920.5
20260507033632 8 45 54.7 0.0 0.00 0.00 0.00 76 920.5
20260507033524 8 0 74.0 0.0 0.00 0.00 0.00 76 920.4
20260507033415 8 0 66.0 0.0 0.00 0.00 0.00 76 920.4
20260507033307 8 0 64.4 0.0 0.00 0.00 0.00 76 920.5
20260507033159 8 315 48.3 0.0 0.00 0.00 0.00 76 920.5
20260507033051 8 0 82.1 0.0 0.00 0.00 0.00 76 920.5
20260507032942 8 45 91.7 0.0 0.00 0.00 0.00 76 920.4
20260507032834 8 45 62.8 0.0 0.00 0.00 0.00 76 920.4
20260507032726 8 315 14.5 0.0 0.00 0.00 0.00 76 920.5
20260507032617 8 90 70.8 0.0 0.00 0.00 0.00 76 920.4
20260507032509 8 45 109.4 0.0 0.00 0.00 0.00 76 920.4
20260507032401 8 45 141.6 0.0 0.00 0.00 0.00 76 920.4
20260507032253 8 0 62.8 0.0 0.00 0.00 0.00 76 920.4
20260507032144 8 0 66.0 0.0 0.00 0.00 0.00 76 920.4
20260507032036 8 315 78.9 0.0 0.00 0.00 0.00 76 920.4
20260507031928 8 45 57.9 0.0 0.00 0.00 0.00 76 920.4
20260507031820 8 315 77.2 0.0 0.00 0.00 0.00 76 920.5
20260507031711 8 0 101.4 0.0 0.00 0.00 0.00 76 920.5
20260507031603 8 0 64.4 0.0 0.00 0.00 0.00 76 920.4
20260507031455 8 45 69.2 0.0 0.00 0.00 0.00 76 920.5
20260507031347 8 0 32.2 0.0 0.00 0.00 0.00 76 920.5
20260507031238 8 270 53.1 0.0 0.00 0.00 0.00 76 920.5
20260507031130 8 0 43.5 0.0 0.00 0.00 0.00 76 920.5
20260507031022 8 0 32.2 0.0 0.00 0.00 0.00 76 920.5
20260507030913 8 0 29.0 0.0 0.00 0.00 0.00 76 920.5
20260507030805 8 0 41.8 0.0 0.00 0.00 0.00 76 920.5
20260507030657 8 315 45.1 0.0 0.00 0.00 0.00 76 920.5
20260507030549 8 0 53.1 0.0 0.00 0.00 0.00 76 920.5
20260507030440 8 45 78.9 0.0 0.00 0.00 0.00 76 920.5
20260507030332 8 315 67.6 0.0 0.00 0.00 0.00 76 920.6
20260507030224 8 0 46.7 0.0 0.00 0.00 0.00 76 920.6
20260507030116 8 315 35.4 0.0 0.00 0.00 0.00 76 920.5
20260507030007 8 45 115.9 0.0 0.00 0.00 0.00 76 920.6
20260507025859 8 45 32.2 0.0 0.00 0.00 0.00 76 920.6
20260507025751 8 0 119.1 0.0 0.00 0.00 0.00 76 920.6
20260507025642 8 0 120.7 0.0 0.00 0.00 0.00 76 920.5
20260507025534 8 0 27.4 0.0 0.00 0.00 0.00 76 920.5
20260507025426 8 0 59.5 0.0 0.00 0.00 0.00 76 920.6
20260507025318 8 45 99.8 0.0 0.00 0.00 0.00 76 920.5
20260507025209 8 0 107.8 0.0 0.00 0.00 0.00 76 920.5
20260507025101 8 0 43.5 0.0 0.00 0.00 0.00 76 920.5
20260507024953 8 315 33.8 0.0 0.00 0.00 0.00 76 920.6
20260507024844 8 0 22.5 0.0 0.00 0.00 0.00 76 920.6
20260507024736 8 0 69.2 0.0 0.00 0.00 0.00 76 920.5
20260507024628 8 0 77.2 0.0 0.00 0.00 0.00 76 920.5
20260507024520 8 0 41.8 0.0 0.00 0.00 0.00 76 920.5
20260507024411 8 0 62.8 0.0 0.00 0.00 0.00 76 920.5
20260507024303 8 45 98.2 0.0 0.00 0.00 0.00 76 920.5
20260507024155 8 45 20.9 0.0 0.00 0.00 0.00 76 920.5
20260507024046 8 0 88.5 0.0 0.00 0.00 0.00 76 920.5
20260507023938 8 0 30.6 0.0 0.00 0.00 0.00 76 920.5
20260507023830 8 315 59.5 0.0 0.00 0.00 0.00 76 920.6
20260507023722 8 0 96.6 0.0 0.00 0.00 0.00 76 920.5
20260507023613 8 0 120.7 0.0 0.00 0.00 0.00 76 920.6
20260507023505 8 45 40.2 0.0 0.00 0.00 0.00 76 920.5
20260507023357 8 0 106.2 0.0 0.00 0.00 0.00 76 920.6
20260507023249 8 315 98.2 0.0 0.00 0.00 0.00 76 920.5
20260507023140 8 45 99.8 0.0 0.00 0.00 0.00 76 920.5
20260507023032 7 0 91.7 0.0 0.00 0.00 0.00 76 920.6
20260507022924 7 315 74.0 0.0 0.00 0.00 0.00 76 920.5
20260507022815 7 45 78.9 0.0 0.00 0.00 0.00 76 920.5
20260507022708 7 0 17.7 0.0 0.00 0.00 0.00 76 920.5
20260507022559 7 315 130.4 0.0 0.00 0.00 0.00 76 920.6
20260507022451 7 45 117.5 0.0 0.00 0.00 0.00 76 920.5
20260507022342 7 315 53.1 0.0 0.00 0.00 0.00 76 920.5
20260507022234 7 0 30.6 0.0 0.00 0.00 0.00 76 920.5
20260507022126 7 90 95.0 0.0 0.00 0.00 0.00 76 920.5
20260507022017 7 0 117.5 0.0 0.00 0.00 0.00 76 920.5
20260507021909 7 0 77.2 0.0 0.00 0.00 0.00 76 920.5
20260507021801 7 0 49.9 0.0 0.00 0.00 0.00 76 920.5
20260507021653 7 0 24.1 0.0 0.00 0.00 0.00 76 920.5
20260507021544 7 315 46.7 0.0 0.00 0.00 0.00 75 920.5
20260507021436 7 315 62.8 0.0 0.00 0.00 0.00 75 920.5
20260507021328 7 45 48.3 0.0 0.00 0.00 0.00 75 920.5
20260507021220 7 0 4.8 0.0 0.00 0.00 0.00 75 920.5
20260507021003 6 45 24.1 0.0 0.00 0.00 0.00 74 920.5
20260507020855 6 315 17.7 0.0 0.00 0.00 0.00 74 920.5
20260507020746 6 315 16.1 0.0 0.00 0.00 0.00 74 920.5
20260507020638 6 0 25.7 0.0 0.00 0.00 0.00 74 920.5
20260507020530 7 315 19.3 0.0 0.00 0.00 0.00 74 920.5
20260507020422 7 225 0.0 0.0 0.00 0.00 0.00 73 920.5
20260507020313 7 270 3.2 0.0 0.00 0.00 0.00 73 920.5
20260507020205 7 270 0.0 0.0 0.00 0.00 0.00 73 920.4
20260507015949 7 315 12.9 0.0 0.00 0.00 0.00 74 920.3
20260507015840 7 315 0.0 0.0 0.00 0.00 0.00 74 920.4
20260507015732 7 315 12.9 0.0 0.00 0.00 0.00 74 920.3
20260507015624 7 315 19.3 0.0 0.00 0.00 0.00 74 920.4
20260507015515 7 0 11.3 0.0 0.00 0.00 0.00 74 920.3
20260507015408 7 45 0.0 0.0 0.00 0.00 0.00 74 920.4
20260507015259 7 315 3.2 0.0 0.00 0.00 0.00 74 920.3
20260507015151 7 225 0.0 0.0 0.00 0.00 0.00 74 920.3
20260507015042 7 45 14.5 0.0 0.00 0.00 0.00 75 920.3
20260507014934 7 315 3.2 0.0 0.00 0.00 0.00 75 920.3
20260507014826 7 45 27.4 0.0 0.00 0.00 0.00 75 920.3
20260507014718 7 0 40.2 0.0 0.00 0.00 0.00 75 920.3
20260507014609 7 0 62.8 0.0 0.00 0.00 0.00 75 920.3
20260507014501 8 45 53.1 0.0 0.00 0.00 0.00 75 920.3
20260507014353 8 0 24.1 0.0 0.00 0.00 0.00 75 920.3
20260507014244 8 270 22.5 0.0 0.00 0.00 0.00 75 920.3
20260507014136 8 0 48.3 0.0 0.00 0.00 0.00 75 920.4
20260507014028 8 0 9.7 0.0 0.00 0.00 0.00 75 920.3
20260507013920 8 45 35.4 0.0 0.00 0.00 0.00 75 920.4
20260507013811 8 315 4.8 0.0 0.00 0.00 0.00 76 920.3
20260507013703 8 90 29.0 0.0 0.00 0.00 0.00 76 920.4
20260507013555 7 315 88.5 0.0 0.00 0.00 0.00 76 920.4
20260507013446 7 315 12.9 0.0 0.00 0.00 0.00 76 920.4
20260507013338 7 270 62.8 0.0 0.00 0.00 0.00 76 920.3
20260507013230 7 0 11.3 0.0 0.00 0.00 0.00 75 920.3
20260507013122 7 0 48.3 0.0 0.00 0.00 0.00 76 920.3
20260507013013 7 0 11.3 0.0 0.00 0.00 0.00 75 920.3
20260507012905 7 0 86.9 0.0 0.00 0.00 0.00 75 920.3
20260507012757 7 0 67.6 0.0 0.00 0.00 0.00 75 920.3
20260507012648 7 0 53.1 0.0 0.00 0.00 0.00 75 920.2
20260507012540 7 45 48.3 0.0 0.00 0.00 0.00 75 920.3
20260507012432 7 315 3.2 0.0 0.00 0.00 0.00 75 920.3
20260507012324 7 45 37.0 0.0 0.00 0.00 0.00 75 920.3
20260507012215 7 0 16.1 0.0 0.00 0.00 0.00 75 920.2
20260507012108 7 0 19.3 0.0 0.00 0.00 0.00 75 920.2
20260507011959 7 45 33.8 0.0 0.00 0.00 0.00 75 920.2
20260507011851 7 0 45.1 0.0 0.00 0.00 0.00 75 920.2
20260507011742 7 0 35.4 0.0 0.00 0.00 0.00 75 920.2
20260507011634 7 45 27.4 0.0 0.00 0.00 0.00 75 920.2
20260507011526 7 315 12.9 0.0 0.00 0.00 0.00 75 920.2
20260507011417 7 315 22.5 0.0 0.00 0.00 0.00 75 920.2
20260507011309 7 45 16.1 0.0 0.00 0.00 0.00 75 920.1
20260507011201 7 0 24.1 0.0 0.00 0.00 0.00 75 920.2
20260507011053 7 0 104.6 0.0 0.00 0.00 0.00 75 920.1
20260507010944 7 0 57.9 0.0 0.00 0.00 0.00 75 920.1
20260507010836 7 0 99.8 0.0 0.00 0.00 0.00 75 920.1
20260507010728 7 0 72.4 0.0 0.00 0.00 0.00 75 920.0
20260507010620 7 45 54.7 0.0 0.00 0.00 0.00 75 920.1
20260507010511 7 0 59.5 0.0 0.00 0.00 0.00 75 920.1
20260507010403 7 0 8.0 0.0 0.00 0.00 0.00 75 920.1
20260507010255 7 90 59.5 0.0 0.00 0.00 0.00 75 920.2
20260507010146 7 45 66.0 0.0 0.00 0.00 0.00 75 920.1
20260507010038 7 0 51.5 0.0 0.00 0.00 0.00 75 920.1
20260507005930 7 315 62.8 0.0 0.00 0.00 0.00 75 920.1
20260507005822 7 45 53.1 0.0 0.00 0.00 0.00 75 920.1
20260507005713 7 315 74.0 0.0 0.00 0.00 0.00 75 920.1
20260507005605 7 45 51.5 0.0 0.00 0.00 0.00 75 920.0
20260507005457 7 315 70.8 0.0 0.00 0.00 0.00 75 920.0
20260507005349 7 45 25.7 0.0 0.00 0.00 0.00 75 920.0
20260507005240 7 0 29.0 0.0 0.00 0.00 0.00 75 920.0
20260507005132 7 0 22.5 0.0 0.00 0.00 0.00 75 920.0
20260507005024 7 315 12.9 0.0 0.00 0.00 0.00 75 920.1
20260507004915 7 45 16.1 0.0 0.00 0.00 0.00 75 920.1
20260507004807 7 225 0.0 0.0 0.00 0.00 0.00 75 920.1
20260507004659 7 315 17.7 0.0 0.00 0.00 0.00 75 920.2
20260507004551 7 0 0.0 0.0 0.00 0.00 0.00 75 920.2
20260507004442 7 315 0.0 0.0 0.00 0.00 0.00 75 920.2
20260507004334 7 270 0.0 0.0 0.00 0.00 0.00 75 920.2
20260507004226 7 0 16.1 0.0 0.00 0.00 0.00 75 920.2
20260507004117 7 0 24.1 0.0 0.00 0.00 0.00 75 920.2
20260507004009 7 0 4.8 0.0 0.00 0.00 0.00 75 920.2
20260507003901 7 0 1.6 0.0 0.00 0.00 0.00 76 920.3
20260507003644 7 315 1.6 0.0 0.00 0.00 0.00 76 920.2
20260507003536 7 0 1.6 0.0 0.00 0.00 0.00 76 920.3
20260507003428 7 315 3.2 0.0 0.00 0.00 0.00 76 920.3
20260507003320 7 0 14.5 0.0 0.00 0.00 0.00 76 920.3
20260507003211 7 45 0.0 0.0 0.00 0.00 0.00 76 920.2
20260507003103 7 315 0.0 0.0 0.00 0.00 0.00 76 920.3
20260507002955 7 0 24.1 0.0 0.00 0.00 0.00 76 920.2
20260507002846 7 0 0.0 0.0 0.00 0.00 0.00 76 920.2
20260507002738 7 315 0.0 0.0 0.00 0.00 0.00 76 920.3
20260507002630 7 315 0.0 0.0 0.00 0.00 0.00 76 920.2
20260507002522 7 315 11.3 0.0 0.00 0.00 0.00 75 920.2
20260507002414 7 315 4.8 0.0 0.00 0.00 0.00 75 920.2
20260507002306 7 315 0.0 0.0 0.00 0.00 0.00 75 920.2
20260507002157 7 0 0.0 0.0 0.00 0.00 0.00 75 920.2
20260507002048 7 315 0.0 0.0 0.00 0.00 0.00 75 920.2
20260507001940 7 315 0.0 0.0 0.00 0.00 0.00 75 920.2
20260507001832 7 315 0.0 0.0 0.00 0.00 0.00 75 920.2
20260507001724 7 315 0.0 0.0 0.00 0.00 0.00 75 920.2
20260507001615 7 315 1.6 0.0 0.00 0.00 0.00 75 920.2
20260507001507 7 0 0.0 0.0 0.00 0.00 0.00 75 920.3
20260507001359 7 315 0.0 0.0 0.00 0.00 0.00 75 920.2
20260507001251 7 315 0.0 0.0 0.00 0.00 0.00 75 920.2
20260507001142 7 315 0.0 0.0 0.00 0.00 0.00 75 920.2
20260507001034 7 315 0.0 0.0 0.00 0.00 0.00 75 920.2
20260507000926 7 315 0.0 0.0 0.00 0.00 0.00 75 920.2
20260507000817 6 315 0.0 0.0 0.00 0.00 0.00 75 920.2
20260507000709 6 315 0.0 0.0 0.00 0.00 0.00 75 920.2
20260507000601 6 315 0.0 0.0 0.00 0.00 0.00 75 920.2
20260507000453 6 315 0.0 0.0 0.00 0.00 0.00 75 920.2
20260507000344 6 0 0.0 0.0 0.00 0.00 0.00 75 920.2
20260507000236 6 0 6.4 0.0 0.00 0.00 0.00 75 920.2
20260507000128 6 0 14.5 0.0 0.00 0.00 0.00 75 920.2
20260507000019 6 0 40.2 0.0 0.00 0.00 0.00 75 920.1
20260506235911 6 0 22.5 0.0 0.00 0.00 0.00 75 920.1
20260506235803 6 0 20.9 0.0 0.00 0.00 0.00 75 920.1
20260506235655 6 0 33.8 0.0 0.00 0.00 0.00 75 920.1
20260506235546 6 0 0.0 0.0 0.00 0.00 0.00 75 920.2
20260506235438 6 315 0.0 0.0 0.00 0.00 0.00 75 920.2
20260506235330 6 90 0.0 0.0 0.00 0.00 0.00 74 920.2
20260506235222 6 90 9.7 0.0 0.00 0.00 0.00 74 920.2
20260506235113 6 0 0.0 0.0 0.00 0.00 0.00 74 920.2
20260506235006 6 45 0.0 0.0 0.00 0.00 0.00 74 920.2
20260506234857 6 315 0.0 0.0 0.00 0.00 0.00 74 920.2
20260506234640 6 270 9.7 0.0 0.00 0.00 0.00 73 920.2
20260506234532 6 270 0.0 0.0 0.00 0.00 0.00 73 920.1
20260506234424 6 270 4.8 0.0 0.00 0.00 0.00 73 920.2
20260506234315 6 270 9.7 0.0 0.00 0.00 0.00 73 920.2
20260506234207 6 270 0.0 0.0 0.00 0.00 0.00 73 920.1
20260506234059 6 315 1.6 0.0 0.00 0.00 0.00 73 920.1
20260506233950 6 315 1.6 0.0 0.00 0.00 0.00 73 920.1
20260506233842 6 315 1.6 0.0 0.00 0.00 0.00 73 920.0
20260506233734 6 270 0.0 0.0 0.00 0.00 0.00 73 920.0
20260506233626 6 90 3.2 0.0 0.00 0.00 0.00 73 920.0
20260506233517 6 315 0.0 0.0 0.00 0.00 0.00 73 920.0
20260506233409 6 270 3.2 0.0 0.00 0.00 0.00 73 920.0
20260506233301 6 270 6.4 0.0 0.00 0.00 0.00 73 920.0
20260506233153 6 270 0.0 0.0 0.00 0.00 0.00 73 919.9
20260506233045 6 135 0.0 0.0 0.00 0.00 0.00 73 920.0
20260506232936 6 315 1.6 0.0 0.00 0.00 0.00 73 920.0
20260506232828 6 0 20.9 0.0 0.00 0.00 0.00 72 920.0
20260506232719 6 315 37.0 0.0 0.00 0.00 0.00 72 920.0
20260506232611 6 0 32.2 0.0 0.00 0.00 0.00 72 920.0
20260506232503 6 0 16.1 0.0 0.00 0.00 0.00 72 920.0
20260506232355 6 45 16.1 0.0 0.00 0.00 0.00 72 920.0
20260506232246 6 315 0.0 0.0 0.00 0.00 0.00 72 920.0
20260506232138 6 315 0.0 0.0 0.00 0.00 0.00 72 920.1
20260506232030 6 315 0.0 0.0 0.00 0.00 0.00 72 920.1
20260506231922 6 315 0.0 0.0 0.00 0.00 0.00 72 920.1
20260506231813 6 270 0.0 0.0 0.00 0.00 0.00 72 920.1
20260506231705 6 0 0.0 0.0 0.00 0.00 0.00 72 920.1
20260506231557 6 45 6.4 0.0 0.00 0.00 0.00 72 920.1
20260506231448 7 315 16.1 0.0 0.00 0.00 0.00 72 920.1
20260506231340 7 315 0.0 0.0 0.00 0.00 0.00 72 920.2
20260506231232 7 315 0.0 0.0 0.00 0.00 0.00 72 920.2
20260506231015 7 315 0.0 0.0 0.00 0.00 0.00 72 920.2
20260506230907 7 315 1.6 0.0 0.00 0.00 0.00 72 920.2
20260506230759 7 315 1.6 0.0 0.00 0.00 0.00 73 920.2
20260506230651 7 270 0.0 0.0 0.00 0.00 0.00 73 920.2
20260506230542 7 315 0.0 0.0 0.00 0.00 0.00 73 920.3
20260506230434 7 315 12.9 0.0 0.00 0.00 0.00 73 920.3
20260506230326 7 315 24.1 0.0 0.00 0.00 0.00 73 920.3
20260506230217 7 0 0.0 0.0 0.00 0.00 0.00 73 920.2
20260506230109 8 315 6.4 0.0 0.00 0.00 0.00 73 920.3
20260506230001 8 315 4.8 0.0 0.00 0.00 0.00 73 920.3
20260506225853 8 315 16.1 0.0 0.00 0.00 0.00 74 920.3
20260506225744 8 315 12.9 0.0 0.00 0.00 0.00 74 920.3
20260506225636 8 0 41.8 0.0 0.00 0.00 0.00 74 920.2
20260506225528 8 45 17.7 0.0 0.00 0.00 0.00 74 920.2
20260506225420 8 45 24.1 0.0 0.00 0.00 0.00 74 920.2
20260506225311 8 45 19.3 0.0 0.00 0.00 0.00 74 920.2
20260506225203 8 0 32.2 0.0 0.00 0.00 0.00 74 920.2
20260506225055 8 0 16.1 0.0 0.00 0.00 0.00 74 920.2
20260506224946 8 315 0.0 0.0 0.00 0.00 0.00 74 920.1
20260506224838 8 315 12.9 0.0 0.00 0.00 0.00 74 920.2
20260506224730 8 315 11.3 0.0 0.00 0.00 0.00 74 920.2
20260506224622 8 0 3.2 0.0 0.00 0.00 0.00 75 920.2
20260506224513 8 180 19.3 0.0 0.00 0.00 0.00 75 920.2
20260506224405 8 45 0.0 0.0 0.00 0.00 0.00 75 920.2
20260506224257 8 0 25.7 0.0 0.00 0.00 0.00 75 920.2
20260506224148 8 45 3.2 0.0 0.00 0.00 0.00 75 920.1
20260506224040 9 315 16.1 0.0 0.00 0.00 0.00 75 920.2
20260506223932 9 0 3.2 0.0 0.00 0.00 0.00 75 920.2
20260506223824 9 0 3.2 0.0 0.00 0.00 0.00 75 920.2
20260506223607 9 0 27.4 0.0 0.00 0.00 0.00 75 920.2
20260506223459 9 90 22.5 0.0 0.00 0.00 0.00 75 920.2
20260506223350 9 45 35.4 0.0 0.00 0.00 0.00 76 920.2
20260506223242 9 45 11.3 0.0 0.00 0.00 0.00 76 920.2
20260506223134 9 0 11.3 0.0 0.00 0.00 0.00 76 920.2
20260506223026 9 315 16.1 0.0 0.00 0.00 0.00 76 920.1
20260506222917 9 135 30.6 0.0 0.00 0.00 0.00 76 920.2
20260506222809 9 180 46.7 0.0 0.00 0.00 0.00 76 920.1
20260506222701 9 225 0.0 0.0 0.00 0.00 0.00 76 920.1
20260506222553 9 270 14.5 0.0 0.00 0.00 0.00 76 920.1
20260506222444 9 315 3.2 0.0 0.00 0.00 0.00 76 920.1
20260506222336 9 45 1.6 0.0 0.00 0.00 0.00 76 920.1
20260506222228 9 90 9.7 0.0 0.00 0.00 0.00 76 920.1
20260506222120 9 0 17.7 0.0 0.00 0.00 0.00 76 920.1
20260506222011 9 180 14.5 0.0 0.00 0.00 0.00 75 920.1
20260506221903 9 90 14.5 0.0 0.00 0.00 0.00 75 920.1
20260506221755 9 135 27.4 0.0 0.00 0.00 0.00 75 920.0
20260506221646 9 135 33.8 0.0 0.00 0.00 0.00 75 920.0
20260506221538 9 315 41.8 0.0 0.00 0.00 0.00 75 920.0
20260506221430 9 135 14.5 0.0 0.00 0.00 0.00 75 920.0
20260506221322 9 45 61.2 0.0 0.00 0.00 0.00 75 920.0
20260506221213 9 45 22.5 0.0 0.00 0.00 0.00 75 919.9
20260506221105 10 45 66.0 0.0 0.00 0.00 0.00 75 920.0
20260506220957 10 45 32.2 0.0 0.00 0.00 0.00 75 920.0
20260506220848 10 0 90.1 0.0 0.00 0.00 0.00 75 919.9
20260506220740 10 0 41.8 0.0 0.00 0.00 0.00 76 919.9
20260506220632 10 45 40.2 0.0 0.00 0.00 0.00 76 919.9
20260506220524 10 0 25.7 0.0 0.00 0.00 0.00 76 919.9
20260506220415 10 0 17.7 0.0 0.00 0.00 0.00 76 919.9
20260506220307 10 0 32.2 0.0 0.00 0.00 0.00 76 919.9
20260506220200 10 0 64.4 0.0 0.00 0.00 0.00 76 919.8
20260506220050 10 45 11.3 0.0 0.00 0.00 0.00 76 919.8
20260506215942 10 0 90.1 0.0 0.00 0.00 0.00 76 919.9
20260506215834 10 135 38.6 0.0 0.00 0.00 0.00 76 919.8
20260506215726 10 315 20.9 0.0 0.00 0.00 0.00 76 919.8
20260506215617 10 45 43.5 0.0 0.00 0.00 0.00 76 919.8
20260506215509 10 45 83.7 0.0 0.00 0.00 0.00 76 919.8
20260506215401 10 315 53.1 0.0 0.00 0.00 0.00 76 919.8
20260506215253 10 315 25.7 0.0 0.00 0.00 0.00 75 919.8
20260506215144 10 315 62.8 0.0 0.00 0.00 0.00 75 919.8
20260506215036 10 0 20.9 0.0 0.00 0.00 0.00 75 919.7
20260506214928 10 315 120.7 0.0 0.00 0.00 0.00 75 919.7
20260506214819 10 0 90.1 0.0 0.00 0.00 0.00 75 919.7
20260506214711 10 45 56.3 0.0 0.00 0.00 0.00 75 919.6
20260506214603 10 45 77.2 0.0 0.00 0.00 0.00 75 919.7
20260506214455 10 0 72.4 0.0 0.00 0.00 0.00 76 919.6
20260506214346 10 0 45.1 0.0 0.00 0.00 0.00 76 919.7
20260506214238 10 45 16.1 0.0 0.00 0.00 0.00 75 919.7
20260506214130 10 45 66.0 0.0 0.00 0.00 0.00 76 919.7
20260506214021 10 315 20.9 0.0 0.00 0.00 0.00 76 919.7
20260506213913 10 315 32.2 0.0 0.00 0.00 0.00 76 919.7
20260506213805 10 45 27.4 0.0 0.00 0.00 0.00 76 919.6
20260506213657 10 90 43.5 0.0 0.00 0.00 0.00 76 919.6
20260506213548 10 0 8.0 0.0 0.00 0.00 0.00 76 919.6
20260506213440 10 45 22.5 0.0 0.00 0.00 0.00 76 919.7
20260506213332 10 45 20.9 0.0 0.00 0.00 0.00 76 919.7
20260506213224 10 45 16.1 0.0 0.00 0.00 0.00 76 919.6
20260506213115 10 0 51.5 0.0 0.00 0.00 0.00 76 919.7
20260506213007 10 0 29.0 0.0 0.00 0.00 0.00 76 919.7
20260506212900 10 315 14.5 0.0 0.00 0.00 0.00 76 919.7
20260506212750 10 45 14.5 0.0 0.00 0.00 0.00 76 919.7
20260506212642 10 45 4.8 0.0 0.00 0.00 0.00 76 919.6
20260506212534 10 0 45.1 0.0 0.00 0.00 0.00 76 919.7
20260506212426 10 90 45.1 0.0 0.00 0.00 0.00 76 919.7
20260506212317 10 315 33.8 0.0 0.00 0.00 0.00 76 919.6
20260506212209 10 45 48.3 0.0 0.00 0.00 0.00 76 919.6
20260506212101 10 45 51.5 0.0 0.00 0.00 0.00 76 919.6
20260506211953 10 45 74.0 0.0 0.00 0.00 0.00 76 919.6
20260506211844 10 0 69.2 0.0 0.00 0.00 0.00 76 919.6
20260506211736 10 45 56.3 0.0 0.00 0.00 0.00 76 919.6
20260506211628 10 0 12.9 0.0 0.00 0.00 0.00 76 919.6
20260506211519 10 45 17.7 0.0 0.00 0.00 0.00 76 919.6
20260506211411 10 315 0.0 0.0 0.00 0.00 0.00 75 919.7
20260506211303 10 45 12.9 0.0 0.00 0.00 0.00 75 919.6
20260506211155 10 0 25.7 0.0 0.00 0.00 0.00 75 919.6
20260506211046 10 0 38.6 0.0 0.00 0.00 0.00 75 919.5
20260506210938 10 90 57.9 0.0 0.00 0.00 0.00 75 919.5
20260506210830 10 0 70.8 0.0 0.00 0.00 0.00 75 919.5
20260506210722 10 0 74.0 0.0 0.00 0.00 0.00 76 919.4
20260506210613 10 0 49.9 0.0 0.00 0.00 0.00 76 919.4
20260506210505 10 45 86.9 0.0 0.00 0.00 0.00 76 919.4
20260506210357 10 0 91.7 0.0 0.00 0.00 0.00 76 919.4
20260506210248 10 315 16.1 0.0 0.00 0.00 0.00 75 919.4
20260506210140 10 90 90.1 0.0 0.00 0.00 0.00 75 919.5
20260506210032 10 315 48.3 0.0 0.00 0.00 0.00 75 919.4
20260506205924 10 45 6.4 0.0 0.00 0.00 0.00 75 919.4
20260506205815 10 315 27.4 0.0 0.00 0.00 0.00 75 919.4
20260506205707 10 0 27.4 0.0 0.00 0.00 0.00 75 919.4
20260506205559 10 315 20.9 0.0 0.00 0.00 0.00 75 919.4
20260506205450 10 45 66.0 0.0 0.00 0.00 0.00 75 919.3
20260506205342 10 45 38.6 0.0 0.00 0.00 0.00 75 919.3
20260506205234 10 315 4.8 0.0 0.00 0.00 0.00 75 919.3
20260506205126 10 315 0.0 0.0 0.00 0.00 0.00 75 919.3
20260506205018 10 270 41.8 0.0 0.00 0.00 0.00 75 919.3
20260506204909 10 0 78.9 0.0 0.00 0.00 0.00 75 919.3
20260506204801 10 90 24.1 0.0 0.00 0.00 0.00 75 919.2
20260506204652 10 270 40.2 0.0 0.00 0.00 0.00 75 919.2
20260506204544 10 45 80.5 0.0 0.00 0.00 0.00 75 919.2
20260506204436 10 45 24.1 0.0 0.00 0.00 0.00 75 919.2
20260506204328 10 0 72.4 0.0 0.00 0.00 0.00 75 919.2
20260506204219 10 45 86.9 0.0 0.00 0.00 0.00 75 919.1
20260506204111 10 0 35.4 0.0 0.00 0.00 0.00 75 919.2
20260506204003 10 180 35.4 0.0 0.00 0.00 0.00 75 919.2
20260506203855 10 45 48.3 0.0 0.00 0.00 0.00 75 919.1
20260506203746 10 45 66.0 0.0 0.00 0.00 0.00 74 919.1
20260506203638 10 270 74.0 0.0 0.00 0.00 0.00 74 919.1
20260506203530 10 0 93.3 0.0 0.00 0.00 0.00 74 919.1
20260506203421 10 45 12.9 0.0 0.00 0.00 0.00 74 919.1
20260506203313 10 315 49.9 0.0 0.00 0.00 0.00 74 919.1
20260506203205 10 45 11.3 0.0 0.00 0.00 0.00 74 919.1
20260506203057 10 0 66.0 0.0 0.00 0.00 0.00 74 919.0
20260506202948 10 0 69.2 0.0 0.00 0.00 0.00 74 919.0
20260506202840 11 45 61.2 0.0 0.00 0.00 0.00 74 919.0
20260506202732 11 45 16.1 0.0 0.00 0.00 0.00 74 918.9
20260506202624 11 180 30.6 0.0 0.00 0.00 0.00 74 919.0
20260506202515 11 0 3.2 0.0 0.00 0.00 0.00 74 918.9
20260506202407 11 45 30.6 0.0 0.00 0.00 0.00 74 919.0
20260506202259 11 315 3.2 0.0 0.00 0.00 0.00 74 918.9
20260506202150 11 90 33.8 0.0 0.00 0.00 0.00 74 918.9
20260506202042 11 0 29.0 0.0 0.00 0.00 0.00 74 918.9
20260506201934 11 45 115.9 0.0 0.00 0.00 0.00 74 918.9
20260506201826 11 0 123.9 0.0 0.00 0.00 0.00 74 918.9
20260506201717 11 45 48.3 0.0 0.00 0.00 0.00 74 918.8
20260506201609 11 315 51.5 0.0 0.00 0.00 0.00 74 918.9
20260506201501 11 45 22.5 0.0 0.00 0.00 0.00 74 918.9
20260506201352 11 90 127.1 0.0 0.00 0.00 0.00 74 918.9
20260506201244 11 0 101.4 0.0 0.00 0.00 0.00 75 918.8
20260506201136 11 0 61.2 0.0 0.00 0.00 0.00 75 918.8
20260506201028 11 315 45.1 0.0 0.00 0.00 0.00 75 918.8
20260506200919 11 45 120.7 0.0 0.00 0.00 0.00 75 918.8
20260506200811 11 0 90.1 0.0 0.00 0.00 0.00 75 918.7
20260506200703 11 0 53.1 0.0 0.00 0.00 0.00 75 918.8
20260506200555 11 0 86.9 0.0 0.00 0.00 0.00 75 918.7
20260506200446 11 315 33.8 0.0 0.00 0.00 0.00 75 918.7
20260506200338 11 45 70.8 0.0 0.00 0.00 0.00 75 918.7
20260506200230 11 45 82.1 0.0 0.00 0.00 0.00 75 918.7
20260506200121 11 0 29.0 0.0 0.00 0.00 0.00 75 918.7
20260506200013 11 90 93.3 0.0 0.00 0.00 0.00 75 918.7
20260506195905 12 315 25.7 0.0 0.00 0.00 0.00 75 918.7
20260506195757 12 315 41.8 0.0 0.00 0.00 0.00 75 918.8
20260506195649 12 0 45.1 0.0 0.00 0.00 0.00 75 918.7
20260506195540 12 90 14.5 0.0 0.00 0.00 0.00 75 918.7
20260506195432 12 135 11.3 0.0 0.00 0.00 0.00 75 918.7
20260506195323 12 180 38.6 0.0 0.00 0.00 0.00 75 918.7
20260506195215 12 315 20.9 0.0 0.00 0.00 0.00 75 918.7
20260506195107 12 270 6.4 0.0 0.00 0.00 0.00 75 918.7
20260506194959 12 0 24.1 0.0 0.00 0.00 0.00 75 918.7
20260506194850 12 315 33.8 0.0 0.00 0.00 0.00 75 918.7
20260506194742 12 315 37.0 0.0 0.00 0.00 0.00 75 918.7
20260506194634 12 0 6.4 0.0 0.00 0.00 0.00 75 918.6
20260506194526 12 135 33.8 0.0 0.00 0.00 0.00 75 918.7
20260506194417 12 315 16.1 0.0 0.00 0.00 0.00 75 918.7
20260506194309 12 90 11.3 0.0 0.00 0.00 0.00 74 918.6
20260506194201 12 45 0.0 0.0 0.00 0.00 0.00 74 918.7
20260506194052 12 90 1.6 0.0 0.00 0.00 0.00 74 918.6
20260506193944 12 315 8.0 0.0 0.00 0.00 0.00 74 918.7
20260506193836 12 315 12.9 0.0 0.00 0.00 0.00 74 918.6
20260506193728 12 45 20.9 0.0 0.00 0.00 0.00 74 918.6
20260506193619 12 90 59.5 0.0 0.00 0.00 0.00 74 918.6
20260506193511 12 315 38.6 0.0 0.00 0.00 0.00 74 918.5
20260506193403 12 180 33.8 0.0 0.00 0.00 0.00 74 918.5
20260506193254 12 135 8.0 0.0 0.00 0.00 0.00 74 918.6
20260506193146 12 135 9.7 0.0 0.00 0.00 0.00 74 918.5
20260506193038 12 180 17.7 0.0 0.00 0.00 0.00 74 918.6
20260506192930 12 90 0.0 0.0 0.00 0.00 0.00 74 918.6
20260506192821 12 90 20.9 0.0 0.00 0.00 0.00 74 918.6
20260506192713 12 90 0.0 0.0 0.00 0.00 0.00 75 918.5
20260506192605 12 45 17.7 0.0 0.00 0.00 0.00 75 918.5
20260506192457 12 180 38.6 0.0 0.00 0.00 0.00 75 918.5
20260506192348 13 315 12.9 0.0 0.00 0.00 0.00 75 918.4
20260506192240 13 45 11.3 0.0 0.00 0.00 0.00 75 918.4
20260506192132 13 315 24.1 0.0 0.00 0.00 0.00 75 918.4
20260506192023 13 180 11.3 0.0 0.00 0.00 0.00 75 918.4
20260506191915 13 315 12.9 0.0 0.00 0.00 0.00 75 918.3
20260506191807 13 180 78.9 0.0 0.00 0.00 0.00 75 918.4
20260506191659 13 180 56.3 0.0 0.00 0.00 0.00 75 918.3
20260506191550 13 180 20.9 0.0 0.00 0.00 0.00 75 918.3
20260506191442 13 135 11.3 0.0 0.00 0.00 0.00 75 918.3
20260506191334 13 270 12.9 0.0 0.00 0.00 0.00 75 918.2
20260506191225 13 180 24.1 0.0 0.00 0.00 0.00 75 918.2
20260506191117 13 135 6.4 0.0 0.00 0.00 0.00 75 918.2
20260506191009 13 135 17.7 0.0 0.00 0.00 0.00 75 918.2
20260506190901 13 135 35.4 0.0 0.00 0.00 0.00 75 918.2
20260506190752 13 135 32.2 0.0 0.00 0.00 0.00 75 918.1
20260506190644 13 90 29.0 0.0 0.00 0.00 0.00 75 918.1
20260506190536 13 0 37.0 0.0 0.00 0.00 0.00 75 918.0
20260506190428 13 90 32.2 0.0 0.00 0.00 0.00 75 918.0
20260506190319 13 45 24.1 0.0 0.00 0.00 0.00 75 918.0
20260506190211 13 135 37.0 0.0 0.00 0.00 0.00 75 918.0
20260506185954 13 315 24.1 0.0 0.00 0.00 0.00 75 918.0
20260506185846 13 270 35.4 0.0 0.00 0.00 0.00 75 918.0
20260506185738 13 90 27.4 0.0 0.00 0.00 0.00 75 918.0
20260506185630 13 315 56.3 0.0 0.00 0.00 0.00 75 918.0
20260506185521 13 0 30.6 0.0 0.00 0.00 0.00 75 918.0
20260506185307 13 270 0.0 0.0 0.00 0.00 0.00 75 917.9
20260506185157 13 315 1.6 0.0 0.00 0.00 0.00 75 917.9
20260506185048 13 315 24.1 0.0 0.00 0.00 0.00 75 917.8
20260506184940 13 0 20.9 0.0 0.00 0.00 0.00 75 917.8
20260506184832 13 0 45.1 0.0 0.00 0.00 0.00 74 917.7
20260506184723 13 90 4.8 0.0 0.00 0.00 0.00 74 917.7
20260506184507 13 270 3.2 0.0 0.00 0.00 0.00 74 917.7
20260506184359 13 315 8.0 0.0 0.00 0.00 0.00 74 917.6
20260506184250 13 315 8.0 0.0 0.00 0.00 0.00 74 917.6
20260506184142 13 315 1.6 0.0 0.00 0.00 0.00 74 917.5
20260506184034 13 315 16.1 0.0 0.00 0.00 0.00 74 917.5
20260506183926 13 315 17.7 0.0 0.00 0.00 0.00 74 917.5
20260506183817 13 0 1.6 0.0 0.00 0.00 0.00 74 917.5
20260506183709 13 270 27.4 0.0 0.00 0.00 0.00 74 917.4
20260506183601 13 90 14.5 0.0 0.00 0.00 0.00 74 917.5
20260506183452 14 315 20.9 0.0 0.00 0.00 0.00 74 917.4
20260506183344 14 270 43.5 0.0 0.00 0.00 0.00 74 917.4
20260506183236 14 180 12.9 0.0 0.00 0.00 0.00 74 917.4
20260506183128 14 270 11.3 0.0 0.00 0.00 0.00 74 917.3
20260506183020 14 270 25.7 0.0 0.00 0.00 0.00 74 917.3
20260506182911 14 225 16.1 0.0 0.00 0.00 0.00 74 917.3
20260506182803 14 180 22.5 0.0 0.00 0.00 0.00 74 917.3
20260506182654 14 180 3.2 0.0 0.00 0.00 0.00 74 917.2
20260506182546 14 180 11.3 0.0 0.00 0.00 0.00 74 917.2
20260506182438 14 180 16.1 0.0 0.00 0.00 0.00 74 917.2
20260506182329 14 180 20.9 0.0 0.00 0.00 0.00 74 917.2
20260506182221 15 135 12.9 0.0 0.00 0.00 0.00 74 917.2
20260506182112 15 135 24.1 0.0 0.00 0.00 0.00 74 917.2
20260506181856 15 90 0.0 0.0 0.00 0.00 0.00 74 917.2
20260506181747 15 0 0.0 0.0 0.00 0.00 0.00 74 917.2
20260506181640 15 225 4.8 0.0 0.00 0.00 0.00 74 917.2
20260506181530 15 135 14.5 0.0 0.00 0.00 0.00 74 917.1
20260506181422 15 225 37.0 0.0 0.00 0.00 0.00 74 917.1
20260506181313 15 225 32.2 0.0 0.00 0.00 0.00 74 917.0
20260506181205 15 0 9.7 0.0 0.00 0.00 0.00 73 917.0
20260506181056 15 225 0.0 0.0 0.00 0.00 0.00 73 917.0
20260506180949 15 45 0.0 0.0 0.00 0.00 0.00 73 917.0
20260506180840 15 0 19.3 0.0 0.00 0.00 0.00 73 916.9
20260506180731 15 90 1.6 0.0 0.00 0.00 0.00 73 916.9
20260506180623 15 0 19.3 0.0 0.00 0.00 0.00 73 916.9
20260506180514 15 315 11.3 0.0 0.00 0.00 0.00 73 916.9
20260506180406 15 315 0.0 0.0 0.00 0.00 0.00 73 916.8
20260506180257 15 0 0.0 0.0 0.00 0.00 0.00 73 916.8
20260506180149 15 135 51.5 0.0 0.00 0.00 0.00 73 916.8
20260506180040 15 225 62.8 0.0 0.00 0.00 0.00 73 916.8
20260506175932 16 180 61.2 0.0 0.00 0.00 0.00 73 916.7
20260506175824 16 180 67.6 0.0 0.00 0.00 0.00 73 916.7
20260506175715 16 225 51.5 0.0 0.00 0.00 0.00 73 916.7
20260506175607 16 135 37.0 0.0 0.00 0.00 0.00 73 916.6
20260506175458 16 90 30.6 0.0 0.00 0.00 0.00 73 916.5
20260506175350 16 90 19.3 0.0 0.00 0.00 0.00 73 916.5
20260506175241 16 90 43.5 0.0 0.00 0.00 0.00 73 916.4
20260506175133 16 180 64.4 0.0 0.00 0.00 0.00 73 916.5
20260506175025 16 135 32.2 0.0 0.00 0.00 0.00 73 916.4
20260506174916 16 135 1.6 0.0 0.00 0.00 0.00 73 916.4
20260506174808 16 315 30.6 0.0 0.00 0.00 0.00 73 916.4
20260506174659 16 135 12.9 0.0 0.00 0.00 0.00 73 916.3
20260506174551 16 225 51.5 0.0 0.00 0.00 0.00 73 916.3
20260506174442 16 180 37.0 0.0 0.00 0.00 0.00 73 916.2
20260506174334 16 180 51.5 0.0 0.00 0.00 0.00 73 916.2
20260506174225 16 180 35.4 0.0 0.00 0.00 0.00 73 916.2
20260506174117 16 135 1.6 0.0 0.00 0.00 0.00 73 916.1
20260506174009 16 135 54.7 0.0 0.00 0.00 0.00 73 916.0
20260506173900 16 180 33.8 0.0 0.00 0.00 0.00 73 916.0
20260506173752 17 180 0.0 0.0 0.00 0.00 0.00 73 915.9
20260506173643 17 90 4.8 0.0 0.00 0.00 0.00 73 915.9
20260506173535 17 45 12.9 0.0 0.00 0.00 0.00 73 915.8
20260506173426 17 180 27.4 0.0 0.00 0.00 0.00 73 915.9
20260506173318 17 180 27.4 0.0 0.00 0.00 0.00 73 915.8
20260506173209 17 225 19.3 0.0 0.00 0.00 0.00 73 915.8
20260506173101 17 180 11.3 0.0 0.00 0.00 0.00 73 915.8
20260506172953 17 270 20.9 0.0 0.00 0.00 0.00 73 915.8
20260506172844 17 135 4.8 0.0 0.00 0.00 0.00 73 915.8
20260506172736 17 180 45.1 0.0 0.00 0.00 0.00 73 915.8
20260506172627 17 225 64.4 0.0 0.00 0.00 0.00 73 915.8
20260506172519 17 90 38.6 0.0 0.00 0.00 0.00 73 915.8
20260506172410 17 90 3.2 0.0 0.00 0.00 0.00 73 915.8
20260506172306 17 45 19.3 0.0 0.00 0.00 0.00 73 915.7
20260506172153 17 90 3.2 0.0 0.00 0.00 0.00 73 915.6
20260506172045 17 180 6.4 0.0 0.00 0.00 0.00 72 915.6
20260506171937 17 0 30.6 0.0 0.00 0.00 0.00 72 915.5
20260506171828 17 45 9.7 0.0 0.00 0.00 0.00 72 915.5
20260506171720 17 45 9.7 0.0 0.00 0.00 0.00 72 915.5
20260506171611 17 0 6.4 0.0 0.00 0.00 0.00 72 915.4
20260506171503 18 135 67.6 0.0 0.00 0.00 0.00 72 915.5
20260506171354 18 90 53.1 0.0 0.00 0.00 0.00 72 915.5
20260506171246 18 135 49.9 0.0 0.00 0.00 0.00 72 915.5
20260506171138 18 135 66.0 0.0 0.00 0.00 0.00 72 915.5
20260506171029 18 135 86.9 0.0 0.00 0.00 0.00 72 915.4
20260506170921 18 135 40.2 0.0 0.00 0.00 0.00 72 915.4
20260506170812 18 135 32.2 0.0 0.00 0.00 0.00 72 915.4
20260506170704 18 45 62.8 0.0 0.00 0.00 0.00 72 915.4
20260506170555 18 135 83.7 0.0 0.00 0.00 0.00 72 915.4
20260506170447 18 90 140.0 0.0 0.00 0.00 0.00 72 915.4
20260506170338 18 180 217.3 0.0 0.00 0.00 0.00 72 915.3
20260506170230 18 180 57.9 0.0 0.00 0.00 0.00 72 915.4
20260506170122 18 90 99.8 0.0 0.00 0.00 0.00 72 915.3
20260506170013 18 180 25.7 0.0 0.00 0.00 0.00 72 915.3
20260506165905 18 90 103.0 0.0 0.00 0.00 0.00 71 915.2
20260506165756 18 90 93.3 0.0 0.00 0.00 0.00 71 915.3
20260506165648 18 90 165.8 0.0 0.00 0.00 0.00 71 915.2
20260506165539 18 135 41.8 0.0 0.00 0.00 0.00 71 915.3
20260506165431 18 225 64.4 0.0 0.00 0.00 0.00 71 915.3
20260506165322 18 90 24.1 0.0 0.00 0.00 0.00 71 915.2
20260506165214 18 90 33.8 0.0 0.00 0.00 0.00 71 915.1
20260506165106 18 225 25.7 0.0 0.00 0.00 0.00 71 915.2
20260506164957 18 0 101.4 0.0 0.00 0.00 0.00 71 915.2
20260506164849 18 180 37.0 0.0 0.00 0.00 0.00 71 915.3
20260506164740 18 180 78.9 0.0 0.00 0.00 0.00 71 915.2
20260506164632 19 225 160.9 0.0 0.00 0.00 0.00 71 915.2
20260506164523 19 135 59.5 0.0 0.00 0.00 0.00 71 915.2
20260506164415 19 90 20.9 0.0 0.00 0.00 0.00 71 915.0
20260506164307 19 90 51.5 0.0 0.00 0.00 0.00 71 915.0
20260506164158 19 180 132.0 0.0 0.00 0.00 0.00 71 915.0
20260506164050 19 135 19.3 0.0 0.00 0.00 0.00 71 915.2
20260506163941 20 135 85.3 0.0 0.00 0.00 0.00 71 915.1
20260506163833 20 90 20.9 0.0 0.00 0.00 0.00 70 915.1
20260506163724 20 315 33.8 0.0 0.00 0.00 0.00 70 915.0
20260506163616 20 90 25.7 0.0 0.00 0.00 0.00 70 915.0
20260506163508 20 135 30.6 0.0 0.00 0.00 0.00 70 915.0
20260506163359 20 270 141.6 0.0 0.00 0.00 0.00 70 914.9
20260506163251 20 180 11.3 0.0 0.00 0.00 0.00 70 914.9
20260506163142 20 90 27.4 0.0 0.00 0.00 0.00 70 915.0
20260506163034 20 90 20.9 0.0 0.00 0.00 0.00 70 914.9
20260506162925 20 225 82.1 0.0 0.00 0.00 0.00 69 914.9
20260506162817 20 135 37.0 0.0 0.00 0.00 0.00 69 914.9
20260506162708 21 90 115.9 0.0 0.00 0.00 0.00 69 914.9
20260506162600 21 135 19.3 0.0 0.00 0.00 0.00 69 914.9
20260506162451 21 90 56.3 0.0 0.00 0.00 0.00 69 914.8
20260506162343 21 135 37.0 0.0 0.00 0.00 0.00 69 914.9
20260506162235 21 180 57.9 0.0 0.00 0.00 0.00 69 914.8
20260506162126 21 225 91.7 0.0 0.00 0.00 0.00 69 914.8
20260506162018 21 90 125.5 0.0 0.00 0.00 0.00 69 914.8
20260506161909 21 135 82.1 0.0 0.00 0.00 0.00 69 914.7
20260506161801 21 180 74.0 0.0 0.00 0.00 0.00 69 914.8
20260506161652 21 225 54.7 0.0 0.00 0.00 0.00 69 914.7
20260506161544 21 90 54.7 0.0 0.00 0.00 0.00 69 914.7
20260506161436 21 225 77.2 0.0 0.00 0.00 0.00 69 914.8
20260506161327 21 225 61.2 0.0 0.00 0.00 0.00 70 914.7
20260506161219 21 180 74.0 0.0 0.00 0.00 0.00 70 914.7
20260506161110 21 135 27.4 0.0 0.00 0.00 0.00 70 914.7
20260506161002 21 90 45.1 0.0 0.00 0.00 0.00 70 914.7
20260506160853 21 180 33.8 0.0 0.00 0.00 0.00 70 914.7
20260506160745 21 180 83.7 0.0 0.00 0.00 0.00 70 914.6
20260506160636 21 225 45.1 0.0 0.00 0.00 0.00 70 914.7
20260506160528 21 90 25.7 0.0 0.00 0.00 0.00 70 914.7
20260506160420 21 180 49.9 0.0 0.00 0.00 0.00 70 914.7
20260506160311 21 135 49.9 0.0 0.00 0.00 0.00 70 914.7
20260506160203 21 225 51.5 0.0 0.00 0.00 0.00 70 914.7
20260506160054 21 180 49.9 0.0 0.00 0.00 0.00 69 914.7
20260506155946 21 90 69.2 0.0 0.00 0.00 0.00 69 914.7
20260506155837 21 180 46.7 0.0 0.00 0.00 0.00 69 914.6
20260506155729 21 90 51.5 0.0 0.00 0.00 0.00 69 914.6
20260506155620 21 180 41.8 0.0 0.00 0.00 0.00 69 914.7
20260506155512 21 180 45.1 0.0 0.00 0.00 0.00 69 914.7
20260506155404 21 135 69.2 0.0 0.00 0.00 0.00 69 914.7
20260506155147 21 180 62.8 0.0 0.00 0.00 0.00 68 914.6
20260506155038 22 180 45.1 0.0 0.00 0.00 0.00 68 914.6
20260506154930 22 180 53.1 0.0 0.00 0.00 0.00 68 914.6
20260506154821 22 225 135.2 0.0 0.00 0.00 0.00 68 914.6
20260506154713 22 180 91.7 0.0 0.00 0.00 0.00 67 914.6
20260506154605 22 180 95.0 0.0 0.00 0.00 0.00 67 914.5
20260506154456 22 90 104.6 0.0 0.00 0.00 0.00 67 914.5
20260506154348 22 135 45.1 0.0 0.00 0.00 0.00 67 914.5
20260506154239 22 90 33.8 0.0 0.00 0.00 0.00 67 914.5
20260506154131 23 90 19.3 0.0 0.00 0.00 0.00 66 914.5
20260506154023 23 180 91.7 0.0 0.00 0.00 0.00 66 914.5
20260506153914 23 180 64.4 0.0 0.00 0.00 0.00 66 914.5
20260506153805 23 225 57.9 0.0 0.00 0.00 0.00 65 914.4
20260506153657 23 225 107.8 0.0 0.00 0.00 0.00 65 914.4
20260506153549 23 225 51.5 0.0 0.00 0.00 0.00 65 914.4
20260506153440 24 270 80.5 0.0 0.00 0.00 0.00 65 914.4
20260506153332 24 135 74.0 0.0 0.00 0.00 0.00 64 914.5
20260506153223 24 180 45.1 0.0 0.00 0.00 0.00 64 914.5
20260506153115 25 225 75.6 0.0 0.00 0.00 0.00 64 914.4
20260506153006 25 180 67.6 0.0 0.00 0.00 0.00 64 914.3
20260506152858 25 180 111.0 0.0 0.00 0.00 0.00 64 914.4
20260506152749 25 90 83.7 0.0 0.00 0.00 0.00 63 914.2
20260506152641 25 180 85.3 0.0 0.00 0.00 0.00 63 914.4
20260506152533 26 180 95.0 0.0 0.00 0.00 0.00 63 914.3
20260506152424 26 225 25.7 0.0 0.00 0.00 0.00 62 914.2
20260506152316 26 90 117.5 0.0 0.00 0.00 0.00 62 914.2
20260506152207 26 135 106.2 0.0 0.00 0.00 0.00 62 914.2
20260506152059 26 180 133.6 0.0 0.00 0.00 0.00 62 914.2
20260506151950 26 225 164.2 0.0 0.00 0.00 0.00 62 914.1
20260506151842 26 180 85.3 0.0 0.00 0.00 0.00 62 914.2
20260506151734 26 180 88.5 0.0 0.00 0.00 0.00 62 914.2
20260506151625 26 225 78.9 0.0 0.00 0.00 0.00 62 914.3
20260506151517 26 90 103.0 0.0 0.00 0.00 0.00 64 914.3
20260506151408 24 180 70.8 0.0 0.00 0.00 0.00 65 914.3
20260506151300 24 90 80.5 0.0 0.00 0.00 0.00 66 914.2
20260506151151 24 90 66.0 0.0 0.00 0.00 0.00 66 914.2
20260506151043 24 90 64.4 0.0 0.00 0.00 0.00 66 914.2
20260506150934 24 180 78.9 0.0 0.00 0.00 0.00 66 914.3
20260506150826 24 180 40.2 0.0 0.00 0.00 0.00 66 914.2
20260506150718 24 135 3.2 0.0 0.00 0.00 0.00 66 914.1
20260506150609 24 180 6.4 0.0 0.00 0.00 0.00 66 914.3
20260506150501 24 270 20.9 0.0 0.00 0.00 0.00 66 914.2
20260506150352 24 225 9.7 0.0 0.00 0.00 0.00 65 914.2
20260506150244 24 270 37.0 0.0 0.00 0.00 0.00 65 914.2
20260506150136 24 225 59.5 0.0 0.00 0.00 0.00 65 914.2
20260506150027 24 135 62.8 0.0 0.00 0.00 0.00 65 914.3
20260506145918 24 135 74.0 0.0 0.00 0.00 0.00 65 914.4
20260506145810 24 90 74.0 0.0 0.00 0.00 0.00 65 914.2
20260506145702 25 180 12.9 0.0 0.00 0.00 0.00 64 914.2
20260506145553 25 225 30.6 0.0 0.00 0.00 0.00 64 914.2
20260506145445 25 90 57.9 0.0 0.00 0.00 0.00 63 914.2
20260506145336 25 180 24.1 0.0 0.00 0.00 0.00 63 914.3
20260506145228 25 0 49.9 0.0 0.00 0.00 0.00 62 914.2
20260506145119 25 180 186.7 0.0 0.00 0.00 0.00 62 914.3
20260506145011 26 180 59.5 0.0 0.00 0.00 0.00 62 914.3
20260506144902 26 135 99.8 0.0 0.00 0.00 0.00 62 914.3
20260506144754 26 225 33.8 0.0 0.00 0.00 0.00 62 914.1
20260506144646 26 180 138.4 0.0 0.00 0.00 0.00 61 914.2
20260506144537 26 225 66.0 0.0 0.00 0.00 0.00 61 914.3
20260506144429 27 135 8.0 0.0 0.00 0.00 0.00 60 914.2
20260506144320 27 45 19.3 0.0 0.00 0.00 0.00 60 914.1
20260506144212 27 90 70.8 0.0 0.00 0.00 0.00 59 914.1
20260506144103 28 135 4.8 0.0 0.00 0.00 0.00 58 914.0
20260506143955 28 180 70.8 0.0 0.00 0.00 0.00 57 913.9
20260506143846 29 180 78.9 0.0 0.00 0.00 0.00 56 913.9
20260506143738 30 180 95.0 0.0 0.00 0.00 0.00 55 913.9
20260506143630 30 180 98.2 0.0 0.00 0.00 0.00 55 914.0
20260506143521 31 180 107.8 0.0 0.00 0.00 0.00 55 913.9
20260506143413 31 180 70.8 0.0 0.00 0.00 0.00 54 913.9
20260506143304 32 180 29.0 0.0 0.00 0.00 0.00 54 913.9
20260506143156 33 270 35.4 0.0 0.00 0.00 0.00 52 913.8
20260506143047 34 225 48.3 0.0 0.00 0.00 0.00 50 913.9
20260506142939 36 180 96.6 0.0 0.00 0.00 0.00 48 913.9
20260506142830 37 180 175.4 0.0 0.00 0.00 0.00 46 913.9
20260506142722 33 180 98.2 0.0 0.00 0.00 0.00 51 913.9
20260506142614 35 180 22.5 0.0 0.00 0.00 0.00 51 913.9
20260506142505 35 225 104.6 0.0 0.00 0.00 0.00 50 913.9
20260506142357 37 225 130.4 0.0 0.00 0.00 0.00 49 913.9
20260506142248 38 135 3.2 0.0 0.00 0.00 0.00 47 914.0
20260506142140 38 315 4.8 0.0 0.00 0.00 0.00 47 913.8
20260506142031 38 90 75.6 0.0 0.00 0.00 0.00 46 913.9
20260506141923 40 90 104.6 0.0 0.00 0.00 0.00 44 913.9
20260506141815 41 225 117.5 0.0 0.00 0.00 0.00 43 914.0
20260506141706 40 180 146.5 0.0 0.00 0.00 0.00 43 913.9
20260506141558 42 45 115.9 0.0 0.00 0.00 0.00 42 913.8
20260506141449 43 315 61.2 0.0 0.00 0.00 0.00 40 913.8
20260506141341 46 90 148.1 0.0 0.00 0.00 0.00 38 914.1
20260506141232 48 180 70.8 0.0 0.00 0.00 0.00 37 914.1
20260506141124 51 90 80.5 0.0 0.00 0.00 0.00 35 914.3
20260506141015 53 180 143.2 0.0 0.00 0.00 0.00 33 914.2
20260506140907 53 180 138.4 0.0 0.00 0.00 0.00 35 914.4
20260506140759 55 180 101.4 0.0 0.00 0.00 0.00 34 914.1
20260506140650 56 180 120.7 0.0 0.00 0.00 0.00 33 914.0
20260506140542 57 90 91.7 0.0 0.00 0.00 0.00 33 914.0
20260506140433 56 225 57.9 0.0 0.00 0.00 0.00 34 914.1
20260506140325 56 225 12.9 0.0 0.00 0.00 0.00 35 914.1
20260506140217 55 0 40.2 0.0 0.00 0.00 0.00 35 914.1
20260506140108 54 180 12.9 0.0 0.00 0.00 0.00 35 914.1
20260506135959 54 135 64.4 0.0 0.00 0.00 0.00 34 914.2
20260506135851 53 90 80.5 0.0 0.00 0.00 0.00 34 914.3
20260506135743 53 90 43.5 0.0 0.00 0.00 0.00 35 914.4
20260506135634 52 135 111.0 0.0 0.00 0.00 0.00 37 914.4
20260506135417 50 45 12.9 0.0 0.00 0.00 0.00 40 914.1
20260506135309 47 225 33.8 0.0 0.00 0.00 0.00 40 914.2
20260506135200 45 45 25.7 0.0 0.00 0.00 0.00 42 914.2
20260506135052 43 315 109.4 0.0 0.00 0.00 0.00 43 914.2
20260506134944 42 0 40.2 0.0 0.00 0.00 0.00 44 914.2
20260506134835 40 180 24.1 0.0 0.00 0.00 0.00 45 914.3
20260506134727 38 180 49.9 0.0 0.00 0.00 0.00 46 914.4
20260506134618 38 135 78.9 0.0 0.00 0.00 0.00 46 914.4
20260506134510 40 180 32.2 0.0 0.00 0.00 0.00 45 914.3
20260506134401 42 225 146.5 0.0 0.00 0.00 0.00 44 914.2
20260506134253 44 180 38.6 0.0 0.00 0.00 0.00 42 914.1
20260506134144 46 180 56.3 0.0 0.00 0.00 0.00 41 914.2
20260506134036 47 315 29.0 0.0 0.00 0.00 0.00 39 914.1
20260506133928 46 225 16.1 0.0 0.00 0.00 0.00 40 914.3
20260506133819 46 45 119.1 0.0 0.00 0.00 0.00 40 914.2
20260506133712 46 90 61.2 0.0 0.00 0.00 0.00 40 914.3
20260506133602 45 315 130.4 0.0 0.00 0.00 0.00 41 914.2
20260506133454 45 0 24.1 0.0 0.00 0.00 0.00 42 914.3
20260506133345 43 0 17.7 0.0 0.00 0.00 0.00 43 914.3
20260506133237 41 315 29.0 0.0 0.00 0.00 0.00 44 914.4
20260506133128 40 270 30.6 0.0 0.00 0.00 0.00 45 914.4
20260506133020 40 135 33.8 0.0 0.00 0.00 0.00 45 914.4
20260506132912 41 90 57.9 0.0 0.00 0.00 0.00 43 914.3
20260506132803 42 180 19.3 0.0 0.00 0.00 0.00 43 914.3
20260506132655 43 90 46.7 0.0 0.00 0.00 0.00 42 914.4
20260506132546 44 135 1.6 0.0 0.00 0.00 0.00 43 914.4
20260506132438 45 315 51.5 0.0 0.00 0.00 0.00 42 914.3
20260506132329 49 180 88.5 0.0 0.00 0.00 0.00 38 914.2
20260506132221 49 90 130.4 0.0 0.00 0.00 0.00 38 914.3
20260506132112 48 315 25.7 0.0 0.00 0.00 0.00 40 914.3
20260506132005 48 45 24.1 0.0 0.00 0.00 0.00 40 914.3
20260506131856 47 135 49.9 0.0 0.00 0.00 0.00 41 914.3
20260506131747 46 45 38.6 0.0 0.00 0.00 0.00 42 914.2
20260506131639 47 0 49.9 0.0 0.00 0.00 0.00 40 914.4
20260506131530 46 0 27.4 0.0 0.00 0.00 0.00 41 914.4
20260506131422 45 315 59.5 0.0 0.00 0.00 0.00 42 914.4
20260506131313 43 315 29.0 0.0 0.00 0.00 0.00 43 914.4
20260506131205 40 90 25.7 0.0 0.00 0.00 0.00 46 914.5
20260506131057 37 45 22.5 0.0 0.00 0.00 0.00 48 914.5
20260506130948 37 90 46.7 0.0 0.00 0.00 0.00 49 914.5
20260506130840 38 135 16.1 0.0 0.00 0.00 0.00 47 914.4
20260506130731 40 180 98.2 0.0 0.00 0.00 0.00 45 914.4
20260506130623 42 90 67.6 0.0 0.00 0.00 0.00 43 914.4
20260506130406 45 225 59.5 0.0 0.00 0.00 0.00 41 914.4
20260506130257 43 180 82.1 0.0 0.00 0.00 0.00 42 914.6
20260506130149 45 180 25.7 0.0 0.00 0.00 0.00 41 914.5
20260506130041 43 135 72.4 0.0 0.00 0.00 0.00 43 914.4
20260506125932 42 135 35.4 0.0 0.00 0.00 0.00 43 914.6
20260506125824 40 135 25.7 0.0 0.00 0.00 0.00 45 914.5
20260506125715 37 180 30.6 0.0 0.00 0.00 0.00 48 914.5
20260506125607 38 180 107.8 0.0 0.00 0.00 0.00 46 914.4
20260506125458 40 135 85.3 0.0 0.00 0.00 0.00 45 914.5
20260506125350 42 180 85.3 0.0 0.00 0.00 0.00 43 914.4
20260506125241 45 225 112.7 0.0 0.00 0.00 0.00 41 914.5
20260506125133 44 135 128.7 0.0 0.00 0.00 0.00 41 914.5
20260506125025 42 180 67.6 0.0 0.00 0.00 0.00 42 914.5
20260506124916 40 225 70.8 0.0 0.00 0.00 0.00 44 914.5
20260506124808 38 225 175.4 0.0 0.00 0.00 0.00 47 914.4
20260506124659 36 180 66.0 0.0 0.00 0.00 0.00 49 914.4
20260506124551 36 225 69.2 0.0 0.00 0.00 0.00 48 914.5
20260506124442 35 225 51.5 0.0 0.00 0.00 0.00 49 914.6
20260506124334 34 180 98.2 0.0 0.00 0.00 0.00 50 914.6
20260506124226 35 225 109.4 0.0 0.00 0.00 0.00 49 914.5
20260506124117 37 180 85.3 0.0 0.00 0.00 0.00 47 914.5
20260506124009 39 180 119.1 0.0 0.00 0.00 0.00 46 914.5
20260506123900 42 180 146.5 0.0 0.00 0.00 0.00 43 914.6
20260506123752 41 180 17.7 0.0 0.00 0.00 0.00 45 914.6
20260506123643 43 135 48.3 0.0 0.00 0.00 0.00 42 914.6
20260506123535 42 225 33.8 0.0 0.00 0.00 0.00 44 914.7
20260506123426 40 90 91.7 0.0 0.00 0.00 0.00 46 914.7
20260506123318 40 180 88.5 0.0 0.00 0.00 0.00 47 914.8
20260506123210 -12 180 46.7 0.0 0.00 0.00 0.00 50 914.8
20260506123101 34 45 127.1 0.0 0.00 0.00 0.00 53 914.7
20260506122953 35 0 14.5 0.0 0.00 0.00 0.00 53 914.7
20260506122844 35 135 83.7 0.0 0.00 0.00 0.00 53 914.8
20260506122736 35 135 37.0 0.0 0.00 0.00 0.00 54 914.9
20260506122627 32 225 66.0 0.0 0.00 0.00 0.00 57 914.8
20260506122519 33 180 40.2 0.0 0.00 0.00 0.00 58 915.0
20260506122410 33 0 8.0 0.0 0.00 0.00 0.00 57 914.9
20260506122305 32 0 27.4 0.0 0.00 0.00 0.00 58 914.9
20260506122154 31 180 0.0 0.0 0.00 0.00 0.00 59 915.0
20260506122045 32 0 43.5 0.0 0.00 0.00 0.00 59 915.0
20260506121937 32 45 40.2 0.0 0.00 0.00 0.00 58 914.9
20260506121828 32 0 45.1 0.0 0.00 0.00 0.00 59 914.9
20260506121720 31 315 86.9 0.0 0.00 0.00 0.00 60 914.8
20260506121611 30 0 72.4 0.0 0.00 0.00 0.00 61 914.7
20260506121503 30 315 19.3 0.0 0.00 0.00 0.00 61 914.8
20260506121355 30 315 8.0 0.0 0.00 0.00 0.00 60 914.8
20260506121246 30 315 35.4 0.0 0.00 0.00 0.00 60 914.8
20260506121138 31 315 20.9 0.0 0.00 0.00 0.00 60 914.9
20260506121029 31 315 51.5 0.0 0.00 0.00 0.00 59 914.9
20260506120921 31 90 14.5 0.0 0.00 0.00 0.00 59 914.9
20260506120812 31 180 27.4 0.0 0.00 0.00 0.00 59 915.0
20260506120704 31 180 86.9 0.0 0.00 0.00 0.00 59 914.9
20260506120555 31 45 30.6 0.0 0.00 0.00 0.00 59 914.9
20260506120447 31 270 70.8 0.0 0.00 0.00 0.00 59 914.9
20260506120338 31 225 70.8 0.0 0.00 0.00 0.00 59 914.9
20260506120230 31 90 3.2 0.0 0.00 0.00 0.00 59 914.9
20260506120122 31 315 35.4 0.0 0.00 0.00 0.00 59 914.8
20260506120013 31 180 16.1 0.0 0.00 0.00 0.00 59 914.9
20260506115905 31 90 22.5 0.0 0.00 0.00 0.00 59 914.9